Latitude: N 50° 09' 49" Longitude: W 05° 11' 53" Elevation: 168m ASL

There are 28 visitors online

Adverts

<- Previous Day | Today | Next Day ->

All Data for 12 June 2019

Time
A - D
Temp
A - D
Dew Point
A - D
Humidity
A - D
Pressure
A - D
Wind
A - D
Wind Dir Gust
A - D
Rain Rate
A - D
Rain Total
00:00 10.2 8.0 86 1014.9 5.4 N 10.7 0.0 0.0
00:01 10.2 8.0 86 1014.9 5.4 N 10.7 0.0 0.0
00:02 10.2 8.0 86 1014.8 5.4 N 10.7 0.0 0.0
00:03 10.2 8.0 86 1014.8 5.4 N 10.7 0.0 0.0
00:04 10.2 8.0 86 1014.7 5.4 N 9.8 0.0 0.0
00:05 10.2 8.0 86 1014.8 5.4 N 9.8 0.0 0.0
00:06 10.2 8.0 86 1014.8 4.5 WNW 9.8 0.0 0.0
00:07 10.2 8.0 86 1014.6 6.0 N 9.8 0.0 0.0
00:08 10.2 8.0 86 1014.9 7.6 N 8.3 0.0 0.0
00:09 10.2 8.0 86 1014.9 7.6 N 8.3 0.0 0.0
00:10 10.2 8.0 86 1014.7 9.8 NW 9.8 0.0 0.0
00:11 10.2 8.0 86 1014.8 9.2 NE 9.8 0.0 0.0
00:13 10.2 8.0 86 1014.7 8.3 N 9.8 0.0 0.0
00:14 10.2 8.0 86 1014.7 10.7 N 10.7 0.0 0.0
00:15 10.2 8.0 86 1014.8 9.2 N 10.7 0.0 0.0
00:16 10.2 8.0 86 1014.7 9.8 NW 10.7 0.0 0.0
00:17 10.2 8.0 86 1014.7 6.9 NW 10.7 0.0 0.0
00:18 10.2 8.0 86 1014.7 6.9 NW 10.7 0.0 0.0
00:19 10.2 8.0 86 1014.8 7.6 NW 10.7 0.0 0.0
00:20 10.2 8.0 86 1014.7 3.1 NW 10.7 0.0 0.0
00:21 10.2 8.0 86 1014.8 9.2 N 10.7 0.0 0.0
00:22 10.2 8.0 86 1014.7 5.4 W 10.7 0.0 0.0
00:23 10.2 8.0 86 1014.8 6.0 N 10.7 0.0 0.0
00:24 10.2 8.0 86 1014.8 4.5 S 10.7 0.0 0.0
00:25 10.2 8.0 86 1014.8 3.8 NW 9.8 0.0 0.0
00:26 10.2 8.0 86 1014.8 2.2 N 9.8 0.0 0.0
00:27 10.2 8.0 86 1014.8 0.7 N 9.2 0.0 0.0
00:28 10.1 7.9 86 1014.9 3.8 N 9.2 0.0 0.0
00:29 10.1 8.0 87 1014.6 4.5 NE 9.2 0.0 0.0
00:30 10.1 7.9 86 1014.8 3.1 NW 9.2 0.0 0.0
00:31 10.1 8.0 87 1014.6 0.7 N 6.9 0.0 0.0
00:33 10.1 8.0 87 1014.6 3.8 E 6.9 0.0 0.0
00:34 10.1 8.0 87 1014.8 6.9 NW 6.9 0.0 0.0
00:35 10.1 8.0 87 1014.7 4.5 SW 6.9 0.0 0.0
00:36 10.1 8.0 87 1014.7 1.6 NW 6.9 0.0 0.0
00:37 10.1 8.0 87 1014.7 6.0 NE 6.9 0.0 0.0
00:38 10.1 8.0 87 1014.6 0.7 E 6.9 0.0 0.0
00:39 10.1 8.0 87 1014.8 0.0 NW 6.9 0.0 0.0
00:40 10.1 8.0 87 1014.7 3.1 WNW 6.9 0.0 0.0
00:41 10.1 8.0 87 1014.8 2.2 NE 6.9 0.0 0.0
00:42 10.1 8.0 87 1014.8 6.9 NW 6.9 0.0 0.0
00:43 10.1 8.0 87 1014.7 2.2 NE 6.9 0.0 0.0
00:44 10.0 7.9 87 1014.8 7.6 NW 9.2 0.0 0.0
00:45 10.0 7.9 87 1014.6 6.9 N 9.2 0.0 0.0
00:46 10.0 7.9 87 1014.8 5.4 NE 9.2 0.0 0.0
00:47 10.0 7.9 87 1014.6 6.0 W 9.2 0.0 0.0
00:48 10.0 7.9 87 1014.8 3.1 NW 9.2 0.0 0.0
00:49 10.0 7.9 87 1014.6 3.8 N 9.2 0.0 0.0
00:50 10.0 7.9 87 1014.5 5.4 NW 9.2 0.0 0.0
00:51 10.0 7.9 87 1014.5 3.8 WSW 9.2 0.0 0.0
00:53 10.0 7.9 87 1014.6 3.1 N 9.2 0.0 0.0
00:54 10.0 7.9 87 1014.6 1.6 W 6.9 0.0 0.1
00:55 10.0 7.9 87 1014.5 5.4 NE 6.0 0.8 0.1
00:56 10.0 7.9 87 1014.7 4.5 NE 6.0 0.8 0.1
00:57 10.0 7.9 87 1014.5 5.4 N 5.4 0.8 0.1
00:58 10.0 7.9 87 1014.5 5.4 NE 5.4 0.8 0.1
00:59 10.0 7.9 87 1014.5 2.2 NE 5.4 0.8 0.1
01:00 10.0 7.9 87 1014.5 0.0 W 5.4 0.0 0.1
01:01 10.0 7.9 87 1014.5 0.0 W 5.4 0.0 0.1
01:02 10.0 7.9 87 1014.5 0.0 W 5.4 0.0 0.1
01:03 10.0 7.9 87 1014.5 0.0 W 5.4 0.0 0.1
01:04 10.0 7.9 87 1014.4 0.0 W 5.4 0.0 0.1
01:05 10.0 7.9 87 1014.5 2.2 N 5.4 0.0 0.1
01:06 10.0 7.9 87 1014.4 0.0 NE 5.4 0.8 0.1
01:07 10.0 7.9 87 1014.4 0.0 NE 5.4 0.8 0.1
01:08 9.9 7.8 87 1014.5 6.9 N 6.9 0.8 0.1
01:09 10.0 7.9 87 1014.5 5.4 NW 6.9 0.8 0.1
01:10 9.9 7.8 87 1014.5 0.7 W 6.9 0.8 0.1
01:11 9.9 7.8 87 1014.5 8.3 SW 8.3 0.0 0.1
01:12 9.9 7.8 87 1014.5 2.2 NE 8.3 0.0 0.2
01:13 9.9 7.8 87 1014.5 1.6 E 8.3 0.8 0.2
01:14 9.9 7.8 87 1014.6 6.0 WNW 8.3 0.8 0.2
01:15 9.9 7.8 87 1014.3 4.5 NE 8.3 0.8 0.2
01:16 9.9 7.8 87 1014.5 5.4 N 8.3 0.8 0.2
01:17 9.9 7.8 87 1014.5 5.4 N 8.3 0.8 0.2
01:18 9.9 8.0 88 1014.3 7.6 N 8.3 0.0 0.2
01:19 9.9 8.0 88 1014.3 3.8 SW 8.3 0.0 0.2
01:20 9.9 7.8 87 1014.5 6.0 SE 8.3 0.0 0.2
01:22 9.9 8.0 88 1014.4 3.8 NE 8.3 0.0 0.2
01:23 9.9 8.0 88 1014.2 0.0 NE 8.3 0.0 0.2
01:24 9.9 8.0 88 1014.3 3.8 N 8.3 0.0 0.2
01:25 9.9 8.0 88 1014.2 6.0 NE 8.3 0.0 0.2
01:26 9.9 8.0 88 1014.2 6.0 NE 8.3 0.0 0.2
01:27 9.8 7.9 88 1014.2 5.4 NW 7.6 0.0 0.2
01:28 9.8 7.9 88 1014.2 5.4 NW 7.6 0.0 0.2
01:29 9.8 7.9 88 1014.3 9.8 W 9.8 0.0 0.2
01:30 9.8 7.9 88 1014.3 6.9 N 9.8 0.0 0.2
01:31 9.8 7.9 88 1014.3 4.5 N 9.8 0.0 0.2
01:32 9.8 7.9 88 1014.1 6.0 NW 9.8 0.0 0.2
01:33 9.8 7.9 88 1014.2 6.0 NW 9.8 0.0 0.2
01:34 9.8 7.9 88 1014.2 2.2 N 9.8 0.0 0.2
01:35 9.8 7.9 88 1014.3 7.6 NW 9.8 0.0 0.2
01:36 9.8 7.9 88 1014.1 4.5 SE 9.8 0.0 0.2
01:37 9.8 7.9 88 1014.1 6.0 N 9.8 0.0 0.2
01:38 9.8 7.9 88 1014.2 7.6 NE 9.8 0.0 0.2
01:39 9.7 7.8 88 1014.0 9.2 NW 9.2 0.0 0.2
01:40 9.7 7.8 88 1014.1 6.0 N 9.2 0.0 0.2
01:42 9.7 7.8 88 1014.1 6.9 NW 9.2 0.0 0.2
01:43 9.7 7.8 88 1014.1 4.5 WSW 9.2 0.0 0.2
01:44 9.7 7.8 88 1014.0 5.4 NE 9.2 0.0 0.2
01:45 9.7 7.8 88 1013.8 3.1 WNW 9.2 0.0 0.2
01:46 9.7 7.8 88 1013.9 0.7 SE 9.2 0.0 0.2
01:47 9.7 7.8 88 1014.0 0.7 SE 9.2 0.0 0.2
01:49 9.7 7.8 88 1014.1 2.2 W 6.9 0.0 0.2
01:50 9.7 7.8 88 1013.9 3.1 N 6.9 0.0 0.2
01:51 9.7 7.8 88 1014.0 3.8 SE 6.9 0.0 0.2
01:52 9.7 7.8 88 1013.9 0.7 W 6.9 0.0 0.2
01:53 9.7 7.8 88 1013.9 3.8 NE 5.4 0.0 0.2
01:54 9.7 7.8 88 1013.9 3.8 N 5.4 0.0 0.2
01:55 9.7 7.8 88 1013.8 5.4 E 5.4 0.0 0.2
01:56 9.7 7.8 88 1013.8 4.5 W 6.9 0.0 0.2
01:57 9.7 7.8 88 1013.9 6.0 N 6.9 0.0 0.2
01:58 9.7 7.8 88 1013.8 3.8 N 6.9 0.0 0.2
01:59 9.7 7.8 88 1013.7 4.5 WNW 6.9 0.0 0.2
02:00 9.6 7.7 88 1013.7 1.6 NW 6.9 0.0 0.2
02:01 9.6 7.7 88 1013.7 1.6 NW 6.9 0.0 0.2
02:02 9.6 7.7 88 1013.8 1.6 NW 6.9 0.0 0.2
02:03 9.6 7.7 88 1013.8 1.6 NW 6.9 0.0 0.2
02:04 9.6 7.7 88 1013.7 1.6 NW 6.9 0.0 0.2
02:05 9.6 7.7 88 1013.8 1.6 NW 6.0 0.0 0.2
02:06 9.6 7.7 88 1013.7 1.6 NW 6.0 0.0 0.2
02:07 9.6 7.7 88 1013.7 1.6 NW 4.5 0.0 0.2
02:09 9.6 7.7 88 1013.7 9.2 NE 9.2 0.0 0.2
02:10 9.6 7.7 88 1013.7 3.1 N 9.2 0.0 0.2
02:11 9.6 7.9 89 1013.7 6.9 NE 9.2 0.0 0.2
02:12 9.6 7.9 89 1013.8 8.3 NW 9.2 0.0 0.2
02:13 9.6 7.7 88 1013.7 7.6 NW 9.2 0.0 0.2
02:14 9.6 7.9 89 1013.7 4.5 N 9.2 0.0 0.2
02:15 9.6 7.7 88 1013.7 2.2 S 9.2 0.0 0.2
02:16 9.6 7.9 89 1013.6 0.7 W 9.2 0.0 0.2
02:17 9.6 7.9 89 1013.7 6.9 NW 9.2 0.0 0.2
02:18 9.5 7.8 89 1013.7 7.6 NE 9.2 0.0 0.2
02:19 9.6 7.9 89 1013.6 7.6 WNW 11.4 0.0 0.2
02:20 9.6 7.9 89 1013.7 6.9 NE 11.4 0.0 0.2
02:21 9.6 7.9 89 1013.6 6.9 N 11.4 0.0 0.2
02:22 9.6 7.9 89 1013.7 3.1 NE 11.4 0.0 0.2
02:23 9.5 7.8 89 1013.6 1.6 N 11.4 0.0 0.2
02:24 9.6 7.9 89 1013.5 0.7 E 11.4 0.0 0.2
02:25 9.5 7.8 89 1013.8 4.5 N 11.4 0.0 0.2
02:26 9.5 7.8 89 1013.7 7.6 NE 11.4 0.0 0.2
02:28 9.5 7.8 89 1013.9 8.3 N 11.4 0.0 0.2
02:29 9.5 7.8 89 1013.6 2.2 N 8.3 0.0 0.2
02:30 9.5 7.8 89 1013.7 5.4 NNE 8.3 0.0 0.2
02:31 9.5 7.8 89 1013.7 9.2 N 9.2 0.0 0.2
02:34 9.6 7.9 89 1013.6 6.0 NE 9.2 0.0 0.2
02:35 9.5 7.8 89 1013.6 3.8 NE 9.2 0.0 0.2
02:36 9.5 7.8 89 1013.6 6.9 NNE 9.2 0.0 0.2
02:37 9.5 7.8 89 1013.6 6.9 NNE 9.2 0.0 0.2
02:38 9.5 7.8 89 1013.5 3.1 SE 9.2 0.0 0.2
02:39 9.5 7.8 89 1013.4 8.3 NE 9.2 0.0 0.2
02:40 9.5 7.8 89 1013.5 2.2 W 9.2 0.0 0.2
02:41 9.5 7.8 89 1013.6 6.0 NE 9.2 0.0 0.2
02:42 9.5 7.8 89 1013.5 8.3 N 8.3 0.0 0.2
02:43 9.5 7.8 89 1013.5 5.4 NW 8.3 0.0 0.2
02:44 9.5 7.8 89 1013.5 4.5 N 8.3 0.0 0.2
02:46 9.5 7.8 89 1013.5 1.6 N 8.3 0.0 0.2
02:47 9.5 7.8 89 1013.4 3.8 NE 8.3 0.0 0.2
02:48 9.5 7.8 89 1013.4 5.4 SW 8.3 0.0 0.2
02:49 9.5 7.8 89 1013.3 7.6 W 8.3 0.0 0.2
02:50 9.5 7.8 89 1013.3 2.2 N 8.3 0.0 0.2
02:51 9.5 7.8 89 1013.3 7.6 N 8.3 0.0 0.2
02:52 9.5 7.8 89 1013.5 6.0 N 7.6 0.0 0.2
02:53 9.5 7.8 89 1013.3 6.9 NW 7.6 0.0 0.2
02:54 9.5 7.8 89 1013.3 4.5 N 7.6 0.0 0.2
02:55 9.5 7.8 89 1013.4 4.5 N 7.6 0.0 0.2
02:56 9.5 7.8 89 1013.4 4.5 N 7.6 0.0 0.2
02:57 9.5 7.8 89 1013.3 3.1 NW 7.6 0.0 0.2
02:58 9.5 7.8 89 1013.3 3.8 W 7.6 0.0 0.2
02:59 9.5 7.8 89 1013.4 3.8 NE 7.6 0.0 0.2
03:00 9.5 7.8 89 1013.3 4.5 E 7.6 0.0 0.2
03:01 9.5 7.8 89 1013.3 4.5 E 7.6 0.0 0.2
03:02 9.5 7.8 89 1013.3 4.5 E 7.6 0.0 0.2
03:03 9.5 7.8 89 1013.2 4.5 E 6.9 0.0 0.2
03:05 9.5 7.8 89 1013.3 4.5 E 6.0 0.0 0.2
03:06 9.5 7.8 89 1013.3 4.5 E 6.0 0.0 0.2
03:07 9.5 7.8 89 1013.3 4.5 E 6.0 0.0 0.2
03:08 9.5 7.9 90 1013.3 0.0 NE 4.5 0.0 0.2
03:09 9.5 7.8 89 1013.2 3.8 N 4.5 0.0 0.2
03:10 9.5 7.8 89 1013.3 7.6 N 7.6 0.0 0.2
03:11 9.5 7.9 90 1013.3 4.5 NE 7.6 0.0 0.2
03:12 9.5 7.8 89 1013.4 4.5 SE 7.6 0.0 0.2
03:13 9.5 7.8 89 1013.2 1.6 SE 7.6 0.0 0.2
03:14 9.5 7.9 90 1013.1 5.4 NE 7.6 0.0 0.2
03:15 9.5 7.9 90 1013.2 2.2 NE 7.6 0.0 0.2
03:16 9.5 7.9 90 1013.2 0.7 N 7.6 0.0 0.2
03:17 9.5 7.9 90 1013.1 4.5 N 7.6 0.0 0.2
03:18 9.5 7.9 90 1013.2 6.9 NW 7.6 0.0 0.2
03:19 9.5 7.9 90 1013.1 4.5 NE 7.6 0.0 0.2
03:20 9.5 7.9 90 1013.1 0.7 W 7.6 0.0 0.2
03:21 9.5 7.9 90 1013.2 0.0 NW 6.9 0.0 0.2
03:22 9.5 7.9 90 1013.2 4.5 W 6.9 0.0 0.2
03:24 9.5 7.9 90 1013.2 3.8 W 6.9 0.0 0.2
03:25 9.5 7.9 90 1013.4 3.1 S 6.9 0.0 0.2
03:26 9.5 7.9 90 1013.3 3.1 E 6.9 0.0 0.2
03:27 9.5 7.9 90 1013.3 0.0 SW 6.9 0.0 0.2
03:28 9.5 7.9 90 1013.3 0.7 NE 5.4 0.0 0.2
03:29 9.5 7.9 90 1013.4 6.9 WSW 6.9 0.0 0.2
03:30 9.5 7.9 90 1013.2 4.5 N 6.9 0.0 0.2
03:31 9.5 7.9 90 1013.2 3.8 NW 6.9 0.0 0.2
03:32 9.5 7.9 90 1013.1 3.8 NW 6.9 0.0 0.2
03:33 9.5 7.9 90 1013.2 6.9 N 6.9 0.0 0.2
03:34 9.5 7.9 90 1013.3 5.4 NW 6.9 0.0 0.2
03:35 9.6 8.0 90 1013.3 2.2 NW 6.9 0.0 0.2
03:36 9.5 7.9 90 1013.4 3.1 N 6.9 0.0 0.2
03:37 9.6 8.0 90 1013.2 4.5 NW 6.9 0.0 0.2
03:38 9.6 8.0 90 1013.1 4.5 NW 6.9 0.0 0.2
03:39 9.6 8.0 90 1013.1 7.6 NW 7.6 0.0 0.2
03:40 9.6 8.0 90 1013.1 6.0 NW 7.6 0.0 0.2
03:41 9.5 7.9 90 1013.2 6.9 N 7.6 0.0 0.2
03:42 9.6 8.0 90 1013.1 4.5 N 7.6 0.0 0.2
03:43 9.6 8.0 90 1013.2 3.8 N 7.6 0.0 0.2
03:44 9.5 7.9 90 1013.0 3.1 N 7.6 0.0 0.2
03:45 9.6 8.0 90 1013.1 2.2 W 7.6 0.0 0.2
03:46 9.6 8.0 90 1013.0 2.2 N 7.6 0.0 0.2
03:47 9.6 8.0 90 1013.1 3.8 NE 7.6 0.0 0.3
03:48 9.5 7.9 90 1013.0 4.5 NW 7.6 0.8 0.3
03:49 9.5 7.9 90 1013.1 4.5 N 6.9 0.8 0.3
03:50 9.5 7.9 90 1013.0 0.7 N 6.9 0.8 0.3
03:51 9.5 7.9 90 1012.9 5.4 WSW 6.0 0.8 0.3
03:52 9.5 7.9 90 1012.9 5.4 WSW 6.0 0.8 0.3
03:53 9.5 7.9 90 1013.0 7.6 W 7.6 0.0 0.3
03:54 9.5 7.9 90 1012.9 0.0 NW 7.6 0.0 0.3
03:55 9.5 7.9 90 1012.8 1.6 N 7.6 0.0 0.3
03:56 9.5 7.9 90 1012.8 3.8 N 7.6 0.0 0.3
03:57 9.5 7.9 90 1012.9 1.6 NE 7.6 0.0 0.3
03:58 9.5 7.9 90 1012.6 0.7 N 7.6 0.0 0.3
03:59 9.5 7.9 90 1012.9 3.1 NE 7.6 0.0 0.3
04:01 9.5 7.9 90 1012.9 4.5 N 7.6 0.0 0.3
04:03 9.5 7.9 90 1012.8 4.5 N 4.5 0.0 0.3
04:04 9.5 7.9 90 1012.9 4.5 N 4.5 0.0 0.3
04:05 9.5 7.9 90 1012.8 4.5 N 4.5 0.0 0.3
04:06 9.5 7.9 90 1012.8 3.1 NE 4.5 0.0 0.3
04:07 9.5 7.9 90 1012.7 5.4 N 5.4 0.0 0.3
04:08 9.5 7.9 90 1012.9 3.8 N 5.4 0.0 0.3
04:09 9.5 7.9 90 1012.9 1.6 N 5.4 0.0 0.3
04:10 9.5 7.9 90 1012.8 3.8 N 5.4 0.0 0.3
04:11 9.5 7.9 90 1012.8 2.2 SW 5.4 0.0 0.3
04:12 9.5 7.9 90 1012.8 2.2 SW 5.4 0.0 0.3
04:13 9.5 7.9 90 1012.8 5.4 WNW 5.4 0.0 0.3
04:14 9.5 8.1 91 1012.7 6.9 N 6.9 0.0 0.3
04:15 9.5 8.1 91 1012.7 9.2 NE 9.2 0.0 0.3
04:16 9.5 8.1 91 1012.6 0.7 N 9.2 0.0 0.3
04:17 9.5 8.1 91 1012.8 7.6 NE 9.2 0.0 0.3
04:18 9.5 8.1 91 1012.7 4.5 N 9.2 0.0 0.3
04:19 9.5 8.1 91 1012.7 0.0 NE 9.2 0.0 0.3
04:20 9.5 7.9 90 1012.8 0.0 SE 9.2 0.0 0.3
04:21 9.5 8.1 91 1012.9 1.6 NE 9.2 0.0 0.3
04:22 9.5 8.1 91 1012.9 3.1 NW 9.2 0.0 0.3
04:23 9.5 8.1 91 1012.7 5.4 NW 9.2 0.0 0.3
04:24 9.5 8.1 91 1012.7 5.4 NE 9.2 0.0 0.3
04:25 9.5 8.1 91 1012.8 3.1 NE 7.6 0.0 0.3
04:26 9.5 8.1 91 1012.8 1.6 E 7.6 0.0 0.3
04:27 9.5 8.1 91 1012.7 6.0 NE 7.6 0.0 0.3
04:28 9.5 8.1 91 1012.7 5.4 NE 6.9 0.0 0.3
04:29 9.5 8.1 91 1012.8 3.8 NW 6.9 0.0 0.3
04:30 9.5 8.1 91 1012.8 3.8 N 6.9 0.0 0.3
04:31 9.5 8.1 91 1012.7 3.1 N 6.9 0.0 0.3
04:32 9.5 8.1 91 1012.8 0.0 NE 6.9 0.0 0.3
04:33 9.5 8.1 91 1012.7 3.8 WNW 6.9 0.0 0.3
04:34 9.5 8.1 91 1012.6 7.6 N 7.6 0.0 0.3
04:35 9.5 8.1 91 1012.8 4.5 NW 7.6 0.0 0.3
04:36 9.6 8.2 91 1012.7 3.8 W 7.6 0.0 0.3
04:37 9.6 8.2 91 1012.6 3.8 SE 7.6 0.0 0.3
04:38 9.6 8.2 91 1012.6 5.4 ENE 7.6 0.0 0.3
04:39 9.6 8.2 91 1012.5 1.6 NE 7.6 0.0 0.3
04:40 9.6 8.2 91 1012.5 3.1 NE 7.6 0.0 0.3
04:41 9.6 8.2 91 1012.6 6.0 W 7.6 0.0 0.3
04:42 9.6 8.2 91 1012.7 0.7 N 7.6 0.0 0.3
04:43 9.5 8.1 91 1012.7 2.2 NW 7.6 0.0 0.3
04:44 9.5 8.1 91 1012.7 2.2 NW 7.6 0.0 0.3
04:45 9.6 8.2 91 1012.6 4.5 N 6.0 0.0 0.3
04:46 9.6 8.2 91 1012.6 3.1 NW 6.0 0.0 0.3
04:47 9.6 8.2 91 1012.5 2.2 N 6.0 0.0 0.3
04:48 9.5 8.1 91 1012.6 7.6 N 7.6 0.0 0.3
04:49 9.5 8.1 91 1012.5 7.6 SW 7.6 0.0 0.3
04:50 9.5 8.1 91 1012.5 3.1 N 7.6 0.0 0.3
04:51 9.6 8.2 91 1012.5 6.0 N 7.6 0.0 0.3
04:52 9.5 8.1 91 1012.6 4.5 E 7.6 0.8 0.3
04:53 9.5 8.1 91 1012.5 7.6 N 7.6 0.8 0.3
04:54 9.5 8.1 91 1012.5 4.5 NW 7.6 0.8 0.3
04:55 9.6 8.2 91 1012.6 5.4 N 7.6 0.8 0.3
04:56 9.6 8.2 91 1012.7 2.2 NW 7.6 0.8 0.3
04:57 9.6 8.2 91 1012.5 7.6 N 7.6 0.0 0.3
04:58 9.5 8.1 91 1012.6 6.9 NW 7.6 0.0 0.3
04:59 9.5 8.1 91 1012.5 8.3 NE 8.3 0.0 0.3
05:00 9.5 8.1 91 1012.6 5.4 N 8.3 0.0 0.3
05:01 9.5 8.1 91 1012.6 5.4 N 8.3 0.0 0.3
05:02 9.5 8.1 91 1012.5 5.4 N 8.3 0.0 0.3
05:03 9.5 8.1 91 1012.6 5.4 N 8.3 0.0 0.3
05:04 9.5 8.1 91 1012.5 5.4 N 8.3 0.0 0.3
05:05 9.5 8.1 91 1012.6 5.4 N 8.3 0.0 0.3
05:06 9.5 8.1 91 1012.5 3.8 N 8.3 0.0 0.3
05:08 9.5 8.1 91 1012.7 6.9 NW 8.3 0.0 0.3
05:09 9.5 8.1 91 1012.6 5.4 N 6.9 0.0 0.3
05:10 9.5 8.1 91 1012.5 6.9 N 6.9 0.0 0.3
05:11 9.5 8.1 91 1012.4 5.4 NW 6.9 0.0 0.3
05:12 9.5 8.1 91 1012.4 3.8 NW 6.9 0.0 0.3
05:13 9.5 8.1 91 1012.5 0.7 N 6.9 0.0 0.4
05:14 9.5 8.1 91 1012.4 3.8 ENE 6.9 0.8 0.4
05:15 9.6 8.2 91 1012.4 6.9 NE 6.9 0.8 0.4
05:16 9.5 8.1 91 1012.5 2.2 NW 6.9 0.8 0.4
05:17 9.5 8.1 91 1012.5 0.0 NE 6.9 0.8 0.4
05:18 9.5 8.1 91 1012.3 0.0 N 6.9 0.8 0.4
05:19 9.5 8.1 91 1012.3 0.0 NW 6.9 0.0 0.4
05:20 9.5 8.1 91 1012.3 3.1 WNW 6.9 0.0 0.4
05:22 9.5 8.1 91 1012.4 3.1 N 6.9 0.0 0.4
05:23 9.5 8.1 91 1012.4 6.9 N 6.9 0.0 0.4
05:24 9.5 8.1 91 1012.3 3.1 NNE 6.9 0.0 0.4
05:25 9.5 8.1 91 1012.4 0.7 ENE 6.9 0.0 0.4
05:26 9.5 8.3 92 1012.3 3.1 NE 6.9 0.0 0.4
05:27 9.5 8.1 91 1012.4 0.0 NE 6.9 0.0 0.4
05:28 9.5 8.3 92 1012.3 0.0 WSW 6.9 0.0 0.4
05:29 9.5 8.3 92 1012.3 0.0 WSW 6.9 0.0 0.4
05:30 9.5 8.3 92 1012.3 0.0 NE 6.9 0.0 0.4
05:31 9.5 8.3 92 1012.4 0.0 NE 6.9 0.0 0.4
05:32 9.5 8.1 91 1012.2 1.6 N 6.9 0.0 0.4
05:33 9.5 8.3 92 1012.3 4.5 NE 6.9 0.0 0.4
05:34 9.5 8.3 92 1012.3 0.0 N 4.5 0.0 0.4
05:35 9.5 8.3 92 1012.4 0.7 NE 4.5 0.0 0.4
05:36 9.5 8.3 92 1012.2 6.0 NE 6.0 0.0 0.4
05:37 9.5 8.3 92 1012.4 2.2 NE 6.0 0.0 0.4
05:38 9.5 8.3 92 1012.3 7.6 N 7.6 0.0 0.4
05:39 9.5 8.3 92 1012.5 0.0 N 7.6 0.0 0.4
05:40 9.5 8.3 92 1012.4 4.5 N 7.6 0.0 0.4
05:41 9.5 8.3 92 1012.4 4.5 NW 7.6 0.0 0.4
05:42 9.5 8.3 92 1012.3 0.7 NE 7.6 0.0 0.4
05:43 9.5 8.3 92 1012.4 5.4 N 7.6 0.0 0.4
05:44 9.6 8.4 92 1012.3 3.1 W 7.6 0.0 0.4
05:45 9.6 8.4 92 1012.3 0.7 N 7.6 0.0 0.4
05:46 9.5 8.3 92 1012.4 0.0 N 7.6 0.0 0.4
05:47 9.5 8.3 92 1012.3 0.0 W 7.6 0.0 0.4
05:48 9.5 8.3 92 1012.4 5.4 NW 7.6 0.0 0.4
05:49 9.5 8.3 92 1012.3 5.4 NE 5.4 0.0 0.4
05:50 9.6 8.4 92 1012.3 0.0 NW 5.4 0.0 0.4
05:51 9.5 8.3 92 1012.3 5.4 N 5.4 0.0 0.4
05:52 9.6 8.4 92 1012.4 6.0 N 6.0 0.0 0.4
05:53 9.6 8.4 92 1012.4 0.0 SE 6.0 0.0 0.4
05:54 9.5 8.3 92 1012.4 1.6 NW 6.0 0.0 0.4
05:55 9.6 8.4 92 1012.5 1.6 SW 6.0 0.0 0.4
05:56 9.6 8.4 92 1012.3 6.0 NW 6.0 0.0 0.4
05:57 9.6 8.4 92 1012.3 6.0 NW 6.0 0.0 0.4
05:58 9.5 8.3 92 1012.4 2.2 SE 6.0 0.0 0.4
05:59 9.5 8.3 92 1012.3 0.0 ENE 6.0 0.0 0.4
06:00 9.6 8.4 92 1012.5 0.0 N 6.0 0.0 0.4
06:01 9.6 8.4 92 1012.2 0.0 N 6.0 0.0 0.4
06:02 9.6 8.4 92 1012.5 0.0 N 6.0 0.0 0.4
06:03 9.6 8.4 92 1012.4 0.0 N 6.0 0.0 0.4
06:04 9.6 8.4 92 1012.3 0.0 N 6.0 0.0 0.4
06:05 9.6 8.4 92 1012.4 0.0 N 6.0 0.0 0.4
06:06 9.6 8.4 92 1012.5 4.5 E 6.0 0.0 0.4
06:07 9.6 8.4 92 1012.4 4.5 NW 4.5 0.8 0.4
06:08 9.6 8.4 92 1012.3 7.6 NE 7.6 0.8 0.4
06:09 9.6 8.4 92 1012.3 5.4 W 7.6 0.8 0.4
06:10 9.6 8.4 92 1012.2 0.7 N 7.6 0.8 0.4
06:11 9.6 8.4 92 1012.3 2.2 NW 7.6 0.8 0.4
06:12 9.6 8.4 92 1012.4 5.4 W 7.6 0.0 0.4
06:13 9.6 8.4 92 1012.4 3.1 NE 7.6 0.0 0.4
06:14 9.6 8.4 92 1012.3 0.7 N 7.6 0.0 0.4
06:15 9.6 8.4 92 1012.4 0.0 N 7.6 0.0 0.4
06:16 9.6 8.4 92 1012.3 2.2 N 7.6 0.0 0.4
06:17 9.6 8.4 92 1012.4 1.6 N 7.6 0.0 0.4
06:18 9.6 8.4 92 1012.3 3.1 N 7.6 0.0 0.4
06:19 9.6 8.4 92 1012.3 8.3 NW 8.3 0.0 0.4
06:20 9.6 8.4 92 1012.3 4.5 N 8.3 0.0 0.4
06:21 9.6 8.4 92 1012.4 3.8 NW 8.3 0.0 0.4
06:22 9.6 8.4 92 1012.3 3.8 NW 8.3 0.0 0.4
06:23 9.6 8.4 92 1012.3 3.1 N 8.3 0.0 0.4
06:24 9.6 8.4 92 1012.3 2.2 NE 8.3 0.0 0.4
06:25 9.6 8.4 92 1012.4 5.4 E 8.3 0.0 0.4
06:26 9.6 8.4 92 1012.4 3.1 NNE 8.3 0.0 0.4
06:27 9.6 8.4 92 1012.3 4.5 N 8.3 0.0 0.4
06:28 9.6 8.4 92 1012.2 1.6 N 8.3 0.0 0.4
06:29 9.6 8.4 92 1012.4 3.8 N 8.3 0.0 0.4
06:30 9.6 8.4 92 1012.4 0.7 NW 5.4 0.0 0.4
06:31 9.6 8.4 92 1012.5 1.6 NNE 5.4 0.0 0.4
06:32 9.6 8.4 92 1012.3 6.9 N 6.9 0.0 0.4
06:33 9.6 8.4 92 1012.3 5.4 WNW 6.9 0.0 0.4
06:34 9.6 8.4 92 1012.2 6.0 NE 6.9 0.0 0.4
06:35 9.6 8.4 92 1012.3 4.5 W 6.9 0.0 0.5
06:36 9.6 8.4 92 1012.3 2.2 W 6.9 0.8 0.5
06:37 9.6 8.4 92 1012.4 4.5 N 6.9 0.8 0.5
06:38 9.6 8.4 92 1012.3 0.7 N 6.9 0.8 0.5
06:39 9.6 8.4 92 1012.4 3.8 N 6.9 0.8 0.5
06:40 9.6 8.4 92 1012.3 4.5 NE 6.9 0.8 0.5
06:41 9.6 8.4 92 1012.3 4.5 NE 6.9 0.0 0.5
06:42 9.6 8.4 92 1012.2 5.4 NW 6.0 0.0 0.5
06:43 9.6 8.4 92 1012.3 1.6 SW 6.0 0.0 0.5
06:44 9.6 8.4 92 1012.1 9.2 E 9.2 0.0 0.5
06:45 9.6 8.4 92 1012.2 3.8 N 9.2 0.0 0.5
06:46 9.6 8.4 92 1012.3 0.0 NE 9.2 0.0 0.5
06:47 9.6 8.4 92 1012.2 0.7 N 9.2 0.0 0.5
06:48 9.6 8.4 92 1012.1 0.0 N 9.2 0.0 0.5
06:49 9.6 8.4 92 1012.2 2.2 NE 9.2 0.0 0.5
06:50 9.6 8.4 92 1012.1 0.0 E 9.2 0.0 0.5
06:51 9.6 8.4 92 1012.2 6.0 N 9.2 0.0 0.5
06:52 9.6 8.4 92 1012.1 3.8 E 9.2 0.0 0.5
06:53 9.6 8.4 92 1012.1 3.1 N 9.2 0.0 0.5
06:54 9.6 8.4 92 1012.2 3.8 NNE 6.0 0.0 0.5
06:55 9.6 8.4 92 1012.2 0.0 N 6.0 0.0 0.5
06:56 9.6 8.4 92 1012.2 0.0 N 6.0 0.0 0.5
06:57 9.6 8.4 92 1012.3 2.2 N 6.0 0.0 0.5
06:58 9.6 8.5 93 1012.1 1.6 NW 6.0 0.0 0.5
06:59 9.6 8.5 93 1012.2 5.4 N 6.0 0.0 0.5
07:00 9.6 8.5 93 1012.2 1.6 N 6.0 0.0 0.5
07:01 9.6 8.5 93 1012.2 1.6 N 6.0 0.0 0.5
07:02 9.6 8.5 93 1012.3 1.6 N 5.4 0.0 0.5
07:03 9.6 8.5 93 1012.2 1.6 N 5.4 0.0 0.5
07:04 9.6 8.5 93 1012.1 1.6 N 5.4 0.0 0.5
07:05 9.6 8.5 93 1012.4 1.6 N 5.4 0.0 0.5
07:06 9.6 8.4 92 1012.4 2.2 NW 5.4 0.0 0.5
07:07 9.6 8.5 93 1012.3 3.1 N 5.4 0.0 0.5
07:08 9.6 8.5 93 1012.3 0.7 N 5.4 0.0 0.5
07:09 9.6 8.5 93 1012.2 0.0 SW 5.4 0.0 0.5
07:10 9.6 8.5 93 1012.3 0.0 N 5.4 0.0 0.5
07:11 9.6 8.5 93 1012.3 4.5 NW 5.4 0.0 0.5
07:12 9.6 8.5 93 1012.1 4.5 WSW 5.4 0.0 0.5
07:13 9.6 8.5 93 1012.1 4.5 WSW 5.4 0.0 0.5
07:14 9.6 8.5 93 1012.3 5.4 NW 5.4 0.0 0.5
07:15 9.7 8.6 93 1012.3 3.1 NW 5.4 0.0 0.5
07:16 9.7 8.6 93 1012.2 5.4 W 5.4 0.0 0.5
07:17 9.6 8.5 93 1012.2 3.1 N 5.4 0.0 0.5
07:18 9.6 8.5 93 1012.3 4.5 NNE 5.4 0.0 0.5
07:19 9.7 8.6 93 1012.2 2.2 NW 5.4 0.0 0.5
07:20 9.7 8.6 93 1012.2 3.1 N 5.4 0.0 0.5
07:21 9.6 8.5 93 1012.1 1.6 SE 5.4 0.0 0.5
07:22 9.7 8.6 93 1012.2 3.1 N 5.4 0.0 0.5
07:23 9.7 8.6 93 1012.2 0.7 NW 5.4 0.0 0.5
07:24 9.7 8.6 93 1012.2 2.2 NE 5.4 0.0 0.5
07:25 9.7 8.6 93 1012.2 3.8 W 5.4 0.0 0.5
07:26 9.7 8.6 93 1012.2 2.2 E 5.4 0.0 0.5
07:27 9.7 8.6 93 1012.2 4.5 NW 5.4 0.0 0.5
07:28 9.7 8.6 93 1012.2 3.8 W 4.5 0.0 0.5
07:29 9.7 8.6 93 1012.1 0.0 NE 4.5 0.0 0.5
07:30 9.7 8.6 93 1012.1 2.2 NW 4.5 0.0 0.5
07:31 9.7 8.6 93 1012.1 0.7 N 4.5 0.0 0.5
07:32 9.7 8.6 93 1012.2 1.6 N 4.5 0.0 0.5
07:33 9.7 8.6 93 1011.9 1.6 N 4.5 0.0 0.5
07:34 9.7 8.6 93 1012.2 0.0 NW 4.5 0.0 0.5
07:35 9.7 8.6 93 1012.2 0.0 NE 4.5 0.0 0.5
07:36 9.7 8.6 93 1012.1 0.7 NW 4.5 0.0 0.5
07:37 9.7 8.6 93 1012.2 1.6 N 3.8 0.0 0.5
07:38 9.7 8.6 93 1012.1 2.2 NE 3.1 0.0 0.5
07:39 9.7 8.6 93 1012.1 2.2 NW 3.1 0.0 0.5
07:40 9.8 8.7 93 1012.1 0.0 NW 3.1 0.0 0.5
07:41 9.8 8.7 93 1012.1 0.0 NW 3.1 0.0 0.5
07:42 9.8 8.7 93 1012.1 0.0 NW 3.1 0.0 0.5
07:43 9.8 8.7 93 1012.1 0.0 N 3.1 0.0 0.5
07:44 9.8 8.7 93 1011.9 0.0 E 2.2 0.0 0.5
07:45 9.8 8.7 93 1012.0 3.1 N 3.1 0.0 0.5
07:46 9.8 8.7 93 1012.1 3.1 NNE 3.1 0.0 0.5
07:47 9.8 8.7 93 1012.0 2.2 NE 3.1 0.0 0.5
07:48 9.8 8.7 93 1012.0 2.2 N 3.1 0.0 0.5
07:49 9.8 8.7 93 1011.9 0.0 E 3.1 0.0 0.5
07:50 9.8 8.7 93 1012.0 2.2 N 3.1 0.0 0.5
07:51 9.8 8.7 93 1012.1 3.1 NE 3.1 0.0 0.5
07:52 9.8 8.7 93 1011.9 4.5 N 4.5 0.0 0.5
07:53 9.8 8.7 93 1012.1 3.1 NE 4.5 0.0 0.5
07:54 9.8 8.7 93 1012.0 2.2 N 4.5 0.0 0.5
07:55 9.8 8.7 93 1012.1 2.2 NW 4.5 0.0 0.5
07:56 9.8 8.7 93 1012.0 0.7 NW 4.5 0.0 0.5
07:57 9.8 8.7 93 1012.0 5.4 N 5.4 0.0 0.5
07:58 9.8 8.7 93 1012.0 3.1 N 5.4 0.0 0.5
07:59 9.9 8.8 93 1012.1 0.7 NE 5.4 0.0 0.5
08:00 9.9 8.8 93 1012.0 3.8 NW 5.4 0.0 0.5
08:01 9.9 8.8 93 1011.9 3.8 NW 5.4 0.0 0.5
08:02 9.9 8.8 93 1012.0 3.1 N 5.4 0.0 0.5
08:03 9.9 8.8 93 1012.0 2.2 W 5.4 0.0 0.5
08:04 9.9 8.8 93 1012.1 0.0 W 5.4 0.0 0.5
08:05 9.9 8.8 93 1012.0 0.7 NE 5.4 0.0 0.5
08:06 9.9 8.8 93 1012.1 4.5 NW 5.4 0.0 0.5
08:07 9.9 8.8 93 1012.1 2.2 NW 5.4 0.0 0.5
08:09 9.9 8.8 93 1012.1 3.1 N 4.5 0.0 0.5
08:10 9.9 8.8 93 1012.0 3.1 N 4.5 0.0 0.5
08:11 9.9 8.8 93 1012.0 1.6 NW 4.5 0.0 0.5
08:12 9.9 8.8 93 1012.0 0.0 NE 4.5 0.0 0.5
08:13 9.9 8.8 93 1012.1 0.0 NE 4.5 0.0 0.5
08:14 10.0 8.9 93 1012.0 0.0 WNW 4.5 0.0 0.5
08:15 10.0 8.9 93 1012.0 0.0 WNW 4.5 0.0 0.5
08:16 10.0 8.9 93 1012.1 3.1 N 4.5 0.0 0.5
08:17 10.0 8.9 93 1012.0 0.0 N 4.5 0.0 0.5
08:18 10.0 8.9 93 1012.0 0.0 N 3.8 0.0 0.5
08:19 10.0 8.9 93 1012.0 5.4 NW 5.4 0.0 0.5
08:20 10.0 8.9 93 1012.0 4.5 SSW 5.4 0.0 0.5
08:21 10.0 8.9 93 1012.0 6.0 NW 6.0 0.0 0.5
08:23 10.0 8.9 93 1012.0 0.7 N 6.0 0.0 0.5
08:24 10.0 8.9 93 1011.9 3.8 NW 6.0 0.0 0.5
08:25 10.0 8.9 93 1012.0 3.8 NW 6.0 0.0 0.5
08:26 10.0 8.9 93 1012.0 4.5 N 6.0 0.0 0.5
08:27 10.1 9.2 94 1012.0 1.6 N 6.0 0.0 0.5
08:28 10.1 9.2 94 1012.0 0.0 N 6.0 0.0 0.5
08:29 10.1 9.2 94 1012.0 1.6 NE 6.0 0.0 0.5
08:30 10.1 9.2 94 1012.0 3.1 N 6.0 0.0 0.5
08:31 10.2 9.3 94 1012.0 5.4 N 5.4 0.0 0.5
08:32 10.1 9.0 93 1012.0 2.2 E 5.4 0.0 0.5
08:33 10.1 9.0 93 1012.0 0.0 N 5.4 0.0 0.5
08:34 10.1 9.2 94 1011.9 5.4 N 5.4 0.0 0.5
08:35 10.1 9.2 94 1012.0 3.1 NW 5.4 0.0 0.5
08:36 10.1 9.2 94 1012.0 0.7 NW 5.4 0.0 0.5
08:37 10.1 9.0 93 1012.0 4.5 N 5.4 0.0 0.5
08:38 10.1 9.0 93 1012.0 6.0 NW 6.0 0.0 0.5
08:39 10.1 9.2 94 1011.9 3.8 NW 6.0 0.0 0.5
08:40 10.1 9.2 94 1011.9 3.1 N 6.0 0.0 0.5
08:41 10.1 9.2 94 1011.9 0.0 NW 6.0 0.0 0.5
08:42 10.1 9.2 94 1012.0 3.8 NE 6.0 0.0 0.5
08:43 10.1 9.2 94 1012.0 3.8 NE 6.0 0.0 0.5
08:44 10.1 9.2 94 1012.0 1.6 N 6.0 0.0 0.5
08:45 10.1 9.2 94 1012.0 0.0 NE 6.0 0.0 0.5
08:46 10.2 9.3 94 1012.0 3.1 NE 6.0 0.0 0.5
08:47 10.2 9.3 94 1011.9 3.8 W 6.0 0.0 0.5
08:48 10.2 9.3 94 1012.0 3.1 NW 6.0 0.0 0.5
08:49 10.2 9.3 94 1011.9 2.2 NE 6.0 0.0 0.5
08:50 10.2 9.3 94 1011.9 5.4 N 5.4 0.0 0.5
08:52 10.2 9.3 94 1012.0 3.8 WNW 5.4 0.0 0.5
08:53 10.2 9.3 94 1012.0 4.5 W 5.4 0.0 0.5
08:54 10.2 9.3 94 1012.0 0.0 N 5.4 0.0 0.5
08:55 10.2 9.3 94 1012.0 5.4 N 5.4 0.0 0.5
08:56 10.2 9.3 94 1012.0 3.1 NE 5.4 0.0 0.5
08:57 10.2 9.3 94 1012.1 0.0 NE 5.4 0.0 0.5
08:58 10.2 9.3 94 1011.9 0.0 N 5.4 0.0 0.5
08:59 10.2 9.3 94 1012.0 4.5 NW 5.4 0.0 0.5
09:00 10.2 9.3 94 1011.9 5.4 N 5.4 0.0 0.5
09:01 10.2 9.3 94 1012.0 5.4 N 5.4 0.0 0.5
09:02 10.2 9.3 94 1012.0 6.0 NW 6.0 0.0 0.5
09:03 10.2 9.3 94 1012.0 5.4 N 6.0 0.0 0.5
09:04 10.2 9.3 94 1012.0 3.1 W 6.0 0.0 0.5
09:05 10.3 9.4 94 1012.0 5.4 N 6.0 0.0 0.5
09:06 10.2 9.3 94 1012.0 2.2 N 6.0 0.0 0.5
09:07 10.3 9.4 94 1012.0 2.2 N 6.0 0.0 0.5
09:09 10.3 9.4 94 1011.9 1.6 NE 6.0 0.0 0.5
09:10 10.3 9.4 94 1012.0 4.5 N 6.0 0.0 0.5
09:11 10.3 9.4 94 1011.9 2.2 N 6.0 0.0 0.5
09:12 10.3 9.4 94 1011.9 3.1 NE 5.4 0.0 0.5
09:13 10.3 9.4 94 1011.9 2.2 N 5.4 0.0 0.5
09:14 10.3 9.4 94 1011.8 5.4 NW 5.4 0.0 0.5
09:15 10.3 9.4 94 1011.8 2.2 NE 5.4 0.0 0.5
09:16 10.3 9.4 94 1011.9 2.2 N 5.4 0.0 0.5
09:17 10.3 9.4 94 1011.8 5.4 N 5.4 0.0 0.5
09:18 10.3 9.4 94 1011.9 4.5 N 5.4 0.0 0.5
09:19 10.3 9.4 94 1011.8 3.1 NE 5.4 0.0 0.5
09:20 10.3 9.4 94 1011.7 0.7 NE 5.4 0.0 0.5
09:21 10.3 9.4 94 1011.9 0.0 N 5.4 0.0 0.5
09:22 10.3 9.4 94 1011.7 1.6 NE 5.4 0.0 0.5
09:23 10.4 9.5 94 1011.9 6.0 N 6.0 0.0 0.5
09:24 10.4 9.5 94 1011.7 6.0 NW 6.0 0.0 0.5
09:25 10.4 9.5 94 1011.8 5.4 E 6.0 0.0 0.5
09:26 10.4 9.5 94 1011.7 0.7 NW 6.0 0.0 0.5
09:27 10.4 9.5 94 1011.8 0.0 N 6.0 0.0 0.5
09:28 10.5 9.6 94 1011.6 2.2 E 6.0 0.0 0.5
09:29 10.5 9.6 94 1011.6 2.2 E 6.0 0.0 0.5
09:30 10.5 9.6 94 1011.6 3.8 NE 6.0 0.0 0.5
09:31 10.6 9.7 94 1011.8 3.8 N 6.0 0.0 0.5
09:32 10.6 9.7 94 1011.6 0.7 NW 6.0 0.0 0.5
09:33 10.6 9.7 94 1011.6 3.1 NE 6.0 0.0 0.5
09:34 10.6 9.7 94 1011.6 3.8 NW 6.0 0.0 0.5
09:35 10.6 9.7 94 1011.8 2.2 N 5.4 0.0 0.5
09:36 10.6 9.7 94 1011.7 5.4 N 5.4 0.0 0.5
09:38 10.7 9.8 94 1011.7 6.0 NE 6.0 0.0 0.5
09:39 10.7 9.8 94 1011.7 0.0 N 6.0 0.0 0.5
09:40 10.7 9.8 94 1011.5 0.0 WNW 6.0 0.0 0.5
09:41 10.7 9.8 94 1011.6 0.0 WNW 6.0 0.0 0.5
09:42 10.8 9.9 94 1011.7 0.0 SW 6.0 0.0 0.5
09:43 10.8 9.9 94 1011.6 0.0 NW 6.0 0.0 0.5
09:44 10.8 9.9 94 1011.6 0.0 NW 6.0 0.0 0.5
09:45 10.8 9.9 94 1011.7 0.0 N 6.0 0.0 0.5
09:46 10.8 9.9 94 1011.6 0.0 N 6.0 0.0 0.5
09:47 10.8 9.9 94 1011.6 5.4 NE 6.0 0.0 0.5
09:48 10.8 9.9 94 1011.5 3.8 NE 6.0 0.0 0.5
09:49 10.8 9.9 94 1011.6 3.8 NE 5.4 0.0 0.5
09:50 10.9 10.0 94 1011.5 1.6 NE 5.4 0.0 0.5
09:51 10.9 10.0 94 1011.6 3.1 NE 5.4 0.0 0.5
09:53 10.9 10.0 94 1011.5 3.8 N 6.0 0.0 0.5
09:54 10.9 10.0 94 1011.6 1.6 NE 6.0 0.0 0.5
09:55 10.9 10.0 94 1011.6 4.5 NW 6.0 0.0 0.5
09:56 10.9 10.0 94 1011.7 4.5 ENE 6.0 0.0 0.5
09:57 10.9 10.0 94 1011.6 4.5 NE 6.0 0.0 0.5
09:58 10.9 10.0 94 1011.7 3.1 NE 6.0 0.0 0.5
09:59 10.9 10.0 94 1011.5 4.5 NE 6.0 0.0 0.5
10:00 10.9 10.0 94 1011.6 0.0 N 6.0 0.0 0.5
10:01 10.9 10.0 94 1011.7 0.0 N 6.0 0.0 0.5
10:02 10.9 10.0 94 1011.6 3.1 N 6.0 0.0 0.5
10:03 10.9 10.0 94 1011.5 0.0 E 4.5 0.0 0.5
10:04 10.9 10.0 94 1011.5 0.0 N 4.5 0.0 0.5
10:05 10.9 10.0 94 1011.7 3.1 NE 4.5 0.0 0.5
10:06 10.9 10.0 94 1011.7 0.0 NE 4.5 0.0 0.5
10:08 11.0 10.1 94 1011.5 3.1 N 4.5 0.0 0.5
10:09 11.0 10.1 94 1011.7 2.2 W 3.8 0.0 0.5
10:10 11.0 10.1 94 1011.6 1.6 NW 3.8 0.0 0.5
10:11 11.0 10.1 94 1011.5 3.8 NW 3.8 0.0 0.5
10:12 11.0 10.1 94 1011.5 3.1 N 3.8 0.0 0.5
10:13 11.0 10.1 94 1011.5 3.1 N 3.8 0.0 0.5
10:14 11.0 10.1 94 1011.5 1.6 N 3.8 0.0 0.5
10:15 11.0 10.1 94 1011.6 3.1 NE 3.8 0.0 0.5
10:16 11.0 10.1 94 1011.7 3.8 S 3.8 0.0 0.5
10:17 11.0 10.1 94 1011.5 0.0 NE 3.8 0.0 0.5
10:18 11.0 10.1 94 1011.6 0.7 N 3.8 0.0 0.5
10:19 11.0 10.1 94 1011.6 0.0 N 3.8 0.0 0.5
10:20 11.0 10.1 94 1011.6 1.6 NE 3.8 0.0 0.5
10:22 11.0 10.1 94 1011.6 0.7 NE 3.8 0.0 0.5
10:23 11.0 10.1 94 1011.7 3.8 N 3.8 0.0 0.5
10:24 11.0 10.1 94 1011.6 3.1 N 3.8 0.0 0.5
10:25 11.0 10.1 94 1011.5 0.7 NW 3.8 0.0 0.5
10:26 11.0 10.1 94 1011.6 1.6 NE 3.8 0.0 0.5
10:27 11.0 10.1 94 1011.7 2.2 N 3.8 0.0 0.5
10:28 11.0 10.1 94 1011.7 2.2 N 3.8 0.0 0.5
10:29 11.0 10.1 94 1011.5 0.7 N 3.8 0.0 0.5
10:30 11.0 10.1 94 1011.7 6.0 NE 6.0 0.0 0.5
10:31 11.0 10.1 94 1011.6 0.7 N 6.0 0.0 0.5
10:32 11.0 10.1 94 1011.7 0.7 NE 6.0 0.0 0.5
10:33 11.0 10.1 94 1011.5 3.8 N 6.0 0.0 0.5
10:34 11.0 10.1 94 1011.5 3.8 N 6.0 0.0 0.5
10:35 11.0 10.1 94 1011.7 4.5 NE 8.3 0.0 0.5
10:37 11.0 10.1 94 1011.6 0.7 NE 8.3 0.0 0.5
10:38 11.0 10.1 94 1011.7 3.8 NE 8.3 0.0 0.5
10:39 11.0 10.1 94 1011.7 3.8 E 8.3 0.0 0.5
10:40 11.0 10.1 94 1011.6 0.0 N 8.3 0.0 0.5
10:41 11.0 10.1 94 1011.7 5.4 N 8.3 0.0 0.5
10:42 11.0 10.1 94 1011.7 6.9 N 8.3 0.0 0.5
10:43 11.0 10.1 94 1011.6 3.1 N 8.3 0.0 0.5
10:44 11.0 10.1 94 1011.6 2.2 N 8.3 0.0 0.5
10:45 11.0 10.1 94 1011.8 7.6 N 8.3 0.0 0.5
10:46 11.0 10.1 94 1011.6 3.1 NE 7.6 0.0 0.5
10:47 11.0 10.1 94 1011.7 6.9 NE 7.6 0.0 0.5
10:48 11.0 10.1 94 1011.7 6.0 NE 7.6 0.0 0.5
10:49 11.0 10.1 94 1011.7 1.6 N 7.6 0.0 0.5
10:51 11.0 10.1 94 1011.7 0.0 N 7.6 0.0 0.5
10:52 11.0 10.1 94 1011.9 3.8 NW 7.6 0.0 0.5
10:53 11.0 10.1 94 1011.7 5.4 NW 7.6 0.0 0.5
10:54 11.0 10.1 94 1011.7 5.4 NE 7.6 0.0 0.5
10:55 11.0 10.1 94 1011.7 3.8 NE 6.9 0.0 0.5
10:56 11.0 10.1 94 1011.7 3.8 NE 6.9 0.0 0.5
10:57 11.0 10.1 94 1011.7 0.0 N 6.9 0.0 0.5
10:58 11.0 10.1 94 1011.8 3.8 NW 5.4 0.0 0.5
10:59 11.0 10.1 94 1011.7 4.5 N 5.4 0.0 0.5
11:00 11.0 10.1 94 1011.7 0.0 NE 5.4 0.0 0.5
11:01 11.0 10.1 94 1011.8 0.0 NE 5.4 0.0 0.5
11:02 11.0 10.1 94 1011.9 0.0 NE 5.4 0.0 0.5
11:03 11.0 10.1 94 1011.8 3.8 NE 5.4 0.0 0.5
11:04 11.0 10.1 94 1011.7 0.7 NE 4.5 0.0 0.5
11:05 11.0 10.1 94 1011.6 2.2 E 4.5 0.0 0.5
11:06 11.0 9.9 93 1011.8 2.2 E 4.5 0.0 0.5
11:08 11.0 9.9 93 1011.8 0.0 NW 4.5 0.0 0.5
11:09 11.0 10.1 94 1011.8 0.0 NE 3.8 0.0 0.5
11:10 11.0 10.1 94 1011.8 2.2 NW 3.8 0.0 0.5
11:11 11.0 9.9 93 1011.7 2.2 N 4.5 0.0 0.5
11:12 11.0 10.1 94 1011.7 3.1 N 4.5 0.0 0.5
11:13 11.0 9.9 93 1011.7 3.1 NW 4.5 0.0 0.5
11:14 11.0 9.9 93 1011.7 6.0 WNW 6.0 0.0 0.5
11:15 11.0 10.1 94 1011.7 3.8 NW 6.0 0.0 0.5
11:16 11.0 9.9 93 1011.8 0.7 W 6.0 0.0 0.5
11:17 11.0 9.9 93 1011.6 0.0 NNE 6.0 0.0 0.5
11:18 11.0 10.1 94 1011.7 6.9 N 6.9 0.0 0.5
11:19 11.0 9.9 93 1011.6 3.8 NW 6.9 0.0 0.5
11:20 11.0 10.1 94 1011.6 4.5 N 6.9 0.0 0.5
11:21 11.0 9.9 93 1011.6 0.0 NE 6.9 0.0 0.5
11:23 11.1 10.2 94 1011.6 0.0 N 6.9 0.0 0.5
11:24 11.1 10.2 94 1011.6 0.0 NE 6.9 0.0 0.5
11:25 11.1 10.2 94 1011.6 0.0 N 6.9 0.0 0.5
11:26 11.1 10.2 94 1011.8 6.9 WNW 6.9 0.0 0.5
11:27 11.2 10.3 94 1011.7 2.2 N 6.9 0.0 0.5
11:28 11.2 10.3 94 1011.7 2.2 N 6.9 0.0 0.5
11:29 11.2 10.3 94 1011.7 4.5 NW 6.9 0.0 0.5
11:30 11.2 10.3 94 1011.6 3.1 N 6.9 0.0 0.5
11:31 11.2 10.3 94 1011.5 6.9 N 6.9 0.0 0.5
11:32 11.2 10.3 94 1011.5 0.0 NE 6.9 0.0 0.5
11:33 11.3 10.4 94 1011.6 7.6 N 7.6 0.0 0.5
11:34 11.3 10.4 94 1011.6 2.2 NW 7.6 0.0 0.5
11:35 11.3 10.4 94 1011.6 0.7 ENE 7.6 0.0 0.5
11:36 11.3 10.4 94 1011.5 8.3 NW 8.3 0.0 0.5
11:38 11.3 10.4 94 1011.5 6.0 N 8.3 0.0 0.5
11:39 11.3 10.4 94 1011.6 6.9 N 8.3 0.0 0.5
11:40 11.3 10.4 94 1011.6 0.0 W 8.3 0.0 0.5
11:41 11.3 10.2 93 1011.5 2.2 N 8.3 0.0 0.5
11:42 11.3 10.2 93 1011.5 6.0 NW 8.3 0.0 0.5
11:43 11.3 10.2 93 1011.5 6.0 NW 8.3 0.0 0.5
11:44 11.3 10.2 93 1011.7 3.1 NNE 8.3 0.0 0.5
11:45 11.3 10.2 93 1011.6 0.7 NE 8.3 0.0 0.5
11:46 11.3 10.4 94 1011.6 8.3 N 8.3 0.0 0.5
11:47 11.3 10.2 93 1011.7 4.5 NW 8.3 0.0 0.5
11:48 11.3 10.2 93 1011.8 4.5 NW 8.3 0.0 0.5
11:49 11.3 10.2 93 1011.7 3.8 N 8.3 0.0 0.5
11:50 11.4 10.3 93 1011.7 0.7 W 8.3 0.0 0.5
11:51 11.4 10.3 93 1011.5 6.9 NE 8.3 0.0 0.5
11:53 11.4 10.3 93 1011.5 8.3 W 8.3 0.0 0.5
11:54 11.4 10.3 93 1011.6 8.3 NW 8.3 0.0 0.5
11:55 11.4 10.3 93 1011.6 5.4 WNW 8.3 0.0 0.5
11:56 11.4 10.3 93 1011.6 0.0 N 8.3 0.0 0.5
11:57 11.4 10.3 93 1011.6 4.5 N 8.3 0.0 0.5
11:58 11.4 10.3 93 1011.7 6.9 E 8.3 0.0 0.5
11:59 11.4 10.3 93 1011.7 2.2 NE 8.3 0.0 0.5
12:00 11.4 10.3 93 1011.8 4.5 WNW 8.3 0.0 0.5
12:01 11.4 10.3 93 1011.7 4.5 WNW 8.3 0.0 0.5
12:02 11.4 10.3 93 1011.5 5.4 N 8.3 0.0 0.5
12:03 11.4 10.3 93 1011.5 1.6 NE 8.3 0.0 0.5
12:04 11.4 10.3 93 1011.5 3.1 W 8.3 0.0 0.5
12:05 11.4 10.3 93 1011.5 0.7 NE 8.3 0.0 0.5
12:06 11.4 10.3 93 1011.5 4.5 NW 6.9 0.0 0.5
12:08 11.5 10.4 93 1011.5 5.4 NW 7.6 0.0 0.5
12:09 11.5 10.4 93 1011.3 3.1 NW 7.6 0.0 0.5
12:10 11.5 10.4 93 1011.4 6.0 NE 7.6 0.0 0.5
12:11 11.5 10.4 93 1011.3 0.7 NW 7.6 0.0 0.5
12:12 11.6 10.5 93 1011.3 4.5 N 7.6 0.0 0.5
12:13 11.6 10.5 93 1011.4 7.6 N 7.6 0.0 0.5
12:14 11.6 10.5 93 1011.5 4.5 N 7.6 0.0 0.5
12:15 11.6 10.5 93 1011.3 3.8 W 7.6 0.0 0.5
12:16 11.6 10.5 93 1011.3 2.2 N 7.6 0.0 0.5
12:17 11.7 10.6 93 1011.3 2.2 NW 7.6 0.0 0.5
12:18 11.7 10.6 93 1011.4 3.1 W 7.6 0.0 0.5
12:19 11.7 10.6 93 1011.4 3.8 NW 7.6 0.0 0.5
12:20 11.7 10.6 93 1011.4 7.6 NW 7.6 0.0 0.5
12:21 11.9 10.8 93 1011.4 6.0 N 7.6 0.0 0.5
12:23 12.0 10.9 93 1011.3 2.2 NE 7.6 0.0 0.5
12:24 12.1 11.0 93 1011.3 7.6 N 7.6 0.0 0.5
12:25 12.1 11.0 93 1011.4 1.6 N 7.6 0.0 0.5
12:26 12.2 11.1 93 1011.4 6.0 NW 8.3 0.0 0.5
12:27 12.3 11.2 93 1011.3 7.6 NE 8.3 0.0 0.5
12:28 12.3 11.2 93 1011.3 7.6 NE 8.3 0.0 0.5
12:29 12.4 11.3 93 1011.2 6.9 NNW 8.3 0.0 0.5
12:30 12.4 11.5 94 1011.3 7.6 N 8.3 0.0 0.5
12:31 12.4 11.3 93 1011.2 9.2 N 9.2 0.0 0.5
12:32 12.5 11.4 93 1011.3 6.9 NW 9.2 0.0 0.5
12:33 12.6 11.5 93 1011.4 6.9 W 9.2 0.0 0.5
12:34 12.6 11.5 93 1011.3 5.4 WNW 9.2 0.0 0.5
12:35 12.5 11.4 93 1011.4 4.5 NE 9.2 0.0 0.5
12:36 12.6 11.5 93 1011.2 4.5 N 9.2 0.0 0.5
12:38 12.7 11.6 93 1011.4 5.4 NE 9.2 0.0 0.5
12:39 12.7 11.6 93 1011.3 6.9 NE 9.2 0.0 0.5
12:40 12.7 11.6 93 1011.3 6.9 NW 9.2 0.0 0.5
12:41 12.8 11.7 93 1011.2 7.6 N 8.3 0.0 0.5
12:42 12.8 11.7 93 1011.3 9.2 NW 9.2 0.0 0.5
12:43 12.9 11.8 93 1011.3 6.9 NE 9.2 0.0 0.5
12:44 12.9 11.8 93 1011.2 5.4 N 9.2 0.0 0.5
12:45 13.0 11.9 93 1011.2 1.6 N 9.2 0.0 0.5
12:46 13.0 11.9 93 1011.3 4.5 N 9.2 0.0 0.5
12:47 13.0 11.9 93 1011.2 3.1 E 9.2 0.0 0.5
12:48 13.1 12.0 93 1011.2 6.0 E 9.2 0.0 0.5
12:49 13.2 12.1 93 1011.2 6.9 NE 9.2 0.0 0.5
12:50 13.2 11.9 92 1011.2 6.0 NW 9.2 0.0 0.5
12:52 13.2 11.9 92 1011.1 5.4 NW 6.9 0.0 0.5
12:53 13.3 12.0 92 1011.1 7.6 NW 7.6 0.0 0.5
12:54 13.2 11.9 92 1011.2 6.9 NE 7.6 0.0 0.5
12:55 13.3 12.0 92 1011.1 3.8 NE 7.6 0.0 0.5
12:56 13.3 12.0 92 1011.2 4.5 NE 7.6 0.0 0.5
12:57 13.3 12.0 92 1011.4 6.0 W 7.6 0.0 0.5
12:58 13.3 12.0 92 1011.2 7.6 N 7.6 0.0 0.5
12:59 13.4 12.1 92 1011.2 8.3 NW 8.3 0.0 0.5
13:00 13.5 12.2 92 1011.1 6.0 N 8.3 0.0 0.5
13:01 13.5 12.2 92 1011.1 6.0 N 8.3 0.0 0.5
13:02 13.9 12.6 92 1011.1 6.9 NE 8.3 0.0 0.5
13:03 14.0 12.7 92 1011.1 3.1 NW 8.3 0.0 0.5
13:04 14.1 12.8 92 1011.1 6.0 N 8.3 0.0 0.5
13:05 14.2 12.9 92 1011.1 5.4 N 8.3 0.0 0.5
13:06 14.3 13.0 92 1011.0 7.6 NW 8.3 0.0 0.5
13:07 14.3 12.9 91 1011.2 5.4 W 8.3 0.0 0.5
13:08 14.2 12.8 91 1011.1 8.3 W 8.3 0.0 0.5
13:10 14.1 12.5 90 1011.1 7.6 SE 8.3 0.0 0.5
13:11 14.1 12.5 90 1011.1 3.8 NW 8.3 0.0 0.5
13:12 14.0 12.4 90 1011.1 3.8 NW 8.3 0.0 0.5
13:13 14.0 12.4 90 1011.1 3.8 NW 8.3 0.0 0.5
13:14 13.9 12.3 90 1010.9 3.1 N 8.3 0.0 0.5
13:15 13.9 12.3 90 1011.0 3.1 NW 8.3 0.0 0.5
13:16 13.8 12.0 89 1011.0 5.4 N 8.3 0.0 0.5
13:17 13.7 11.9 89 1011.1 4.5 WNW 8.3 0.0 0.5
13:18 13.6 11.8 89 1010.9 3.8 S 8.3 0.0 0.5
13:19 13.6 11.8 89 1011.1 4.5 NW 7.6 0.0 0.5
13:20 13.5 11.7 89 1011.0 4.5 SW 7.6 0.0 0.5
13:21 13.5 11.7 89 1010.9 3.8 NE 6.0 0.0 0.5
13:22 13.4 11.6 89 1011.0 5.4 SSW 6.9 0.0 0.5
13:23 13.4 11.6 89 1011.0 4.5 NW 6.9 0.0 0.5
13:25 13.4 11.6 89 1011.0 6.9 N 6.9 0.0 0.5
13:26 13.4 11.6 89 1010.9 3.1 NW 6.9 0.0 0.5
13:27 13.3 11.5 89 1011.0 6.9 W 6.9 0.0 0.5
13:28 13.3 11.4 88 1011.0 5.4 WNW 6.9 0.0 0.5
13:29 13.3 11.4 88 1011.1 3.8 NW 6.9 0.0 0.5
13:30 13.3 11.4 88 1011.0 5.4 E 6.9 0.0 0.5
13:31 13.3 11.4 88 1011.0 5.4 NE 6.9 0.0 0.5
13:32 13.2 11.3 88 1011.0 6.0 NW 6.9 0.0 0.5
13:33 13.2 11.3 88 1011.0 4.5 NE 6.9 0.0 0.5
13:34 13.1 11.2 88 1011.1 4.5 NW 6.9 0.0 0.5
13:35 13.1 11.2 88 1011.0 3.1 NW 6.9 0.0 0.5
13:36 13.0 11.1 88 1010.9 3.1 NE 6.9 0.0 0.5
13:37 13.0 11.1 88 1011.0 3.1 NNW 6.9 0.0 0.5
13:38 12.9 10.8 87 1011.0 2.2 NE 6.9 0.0 0.5
13:39 12.9 10.8 87 1011.0 3.8 E 6.9 0.0 0.5
13:41 12.8 10.7 87 1011.0 6.0 N 6.9 0.0 0.5
13:42 12.8 10.7 87 1010.9 1.6 N 6.0 0.0 0.5
13:43 12.8 10.7 87 1010.9 2.2 N 6.0 0.0 0.5
13:44 12.8 10.7 87 1011.0 5.4 NW 6.0 0.0 0.5
13:45 12.7 10.6 87 1010.9 4.5 E 6.0 0.0 0.5
13:46 12.7 10.6 87 1010.8 3.1 SE 6.0 0.0 0.5
13:47 12.7 10.6 87 1010.8 6.0 WSW 6.0 0.0 0.5
13:48 12.7 10.6 87 1010.8 5.4 NW 6.0 0.0 0.5
13:49 12.7 10.6 87 1010.8 4.5 N 6.0 0.0 0.5
13:50 12.7 10.6 87 1010.9 3.8 N 6.0 0.0 0.5
13:51 12.8 10.7 87 1011.0 1.6 NW 6.0 0.0 0.5
13:52 12.8 10.7 87 1011.0 3.1 NW 6.0 0.0 0.5
13:53 12.8 10.7 87 1010.9 5.4 N 6.0 0.0 0.5
13:54 12.8 10.7 87 1010.8 6.0 NW 6.0 0.0 0.5
13:56 12.8 10.7 87 1010.9 4.5 NE 6.0 0.0 0.5
13:57 12.8 10.7 87 1010.9 5.4 NW 6.0 0.0 0.5
13:58 12.8 10.7 87 1011.0 3.8 NW 7.6 0.0 0.5
13:59 12.8 10.7 87 1010.9 6.9 W 7.6 0.0 0.5
14:00 12.8 10.7 87 1010.8 6.9 W 7.6 0.0 0.5
14:01 12.8 10.7 87 1010.8 6.9 W 7.6 0.0 0.5
14:02 12.7 10.6 87 1011.0 5.4 SW 7.6 0.0 0.5
14:03 12.7 10.6 87 1010.9 4.5 W 7.6 0.0 0.5
14:04 12.7 10.6 87 1011.0 3.1 NW 7.6 0.0 0.5
14:05 12.7 10.6 87 1010.9 5.4 N 7.6 0.0 0.5
14:06 12.7 10.6 87 1011.0 3.8 W 7.6 0.0 0.5
14:07 12.7 10.6 87 1010.9 3.8 W 7.6 0.0 0.5
14:08 12.7 10.6 87 1011.0 4.5 N 7.6 0.0 0.5
14:09 12.7 10.4 86 1011.0 4.5 N 6.9 0.0 0.5
14:10 12.7 10.4 86 1010.9 3.1 NW 6.9 0.0 0.5
14:12 12.7 10.4 86 1011.0 5.4 NW 6.9 0.0 0.5
14:13 12.7 10.4 86 1010.8 3.8 NW 6.9 0.0 0.5
14:14 12.7 10.4 86 1010.9 6.0 N 6.9 0.0 0.5
14:15 12.6 10.3 86 1010.9 7.6 NW 7.6 0.0 0.5
14:16 12.6 10.3 86 1010.9 7.6 NW 7.6 0.0 0.5
14:17 12.6 10.3 86 1011.0 4.5 NW 7.6 0.0 0.5
14:18 12.6 10.3 86 1011.0 3.8 N 7.6 0.0 0.5
14:19 12.6 10.3 86 1010.9 3.1 NW 7.6 0.0 0.5
14:20 12.6 10.3 86 1010.9 3.8 N 7.6 0.0 0.5
14:21 12.6 10.1 85 1010.9 3.1 NW 7.6 0.0 0.5
14:22 12.6 10.1 85 1011.0 5.4 NW 7.6 0.0 0.5
14:23 12.6 10.1 85 1011.0 3.8 NE 7.6 0.0 0.5
14:24 12.5 10.1 85 1011.0 2.2 NW 7.6 0.0 0.5
14:25 12.5 10.1 85 1011.1 6.0 NW 7.6 0.0 0.5
14:26 12.4 10.0 85 1011.1 6.0 NW 9.2 0.0 0.5
14:28 12.4 10.0 85 1011.0 3.8 N 9.2 0.0 0.5
14:29 12.4 10.0 85 1011.0 4.5 N 9.2 0.0 0.5
14:30 12.4 10.0 85 1010.9 4.5 NW 9.2 0.0 0.5
14:31 12.3 9.9 85 1010.9 4.5 NW 9.2 0.0 0.5
14:32 12.3 9.9 85 1011.0 3.8 NE 9.2 0.0 0.5
14:33 12.3 9.9 85 1010.9 3.1 NW 9.2 0.0 0.5
14:34 12.3 9.9 85 1011.1 5.4 W 9.2 0.0 0.5
14:35 12.3 9.9 85 1010.9 3.1 N 9.2 0.0 0.5
14:36 12.2 9.6 84 1010.9 3.1 E 9.2 0.0 0.5
14:37 12.2 9.6 84 1011.0 3.8 NW 5.4 0.0 0.5
14:38 12.2 9.6 84 1011.0 4.5 NW 5.4 0.0 0.5
14:39 12.2 9.6 84 1011.1 4.5 NW 5.4 0.0 0.5
14:40 12.2 9.6 84 1011.0 8.3 SW 8.3 0.0 0.5
14:41 12.1 9.5 84 1011.0 3.8 N 8.3 0.0 0.5
14:42 12.1 9.5 84 1011.0 5.4 NE 8.3 0.0 0.5
14:44 12.1 9.5 84 1011.0 5.4 W 8.3 0.0 0.5
14:45 12.1 9.5 84 1011.1 2.2 SW 8.3 0.0 0.5
14:46 12.1 9.5 84 1011.0 9.8 NW 9.8 0.0 0.5
14:47 12.1 9.5 84 1011.1 6.9 NW 9.8 0.0 0.5
14:48 12.1 9.5 84 1011.0 3.8 NE 9.8 0.0 0.5
14:49 12.1 9.5 84 1011.2 4.5 NE 9.8 0.0 0.5
14:50 12.1 9.5 84 1011.1 9.8 S 9.8 0.0 0.5
14:51 12.1 9.5 84 1011.0 6.0 NE 9.8 0.0 0.5
14:52 12.0 9.4 84 1011.0 3.1 N 9.8 0.0 0.5
14:53 12.0 9.4 84 1011.2 3.8 W 9.8 0.0 0.5
14:54 12.0 9.4 84 1011.1 5.4 W 9.8 0.0 0.5
14:55 12.0 9.4 84 1011.1 3.8 N 9.8 0.0 0.5
14:56 12.0 9.4 84 1011.3 3.1 N 9.8 0.0 0.5
14:57 12.0 9.4 84 1011.1 3.1 N 9.8 0.0 0.5
14:58 12.0 9.4 84 1011.1 6.0 NE 9.8 0.0 0.5
14:59 12.0 9.4 84 1011.0 6.0 NE 9.8 0.0 0.5
15:01 12.0 9.4 84 1011.0 6.0 NE 6.0 0.0 0.5
15:02 12.0 9.4 84 1011.0 6.0 WNW 6.9 0.0 0.5
15:03 12.0 9.4 84 1011.0 6.0 ENE 6.9 0.0 0.5
15:04 12.0 9.4 84 1011.0 5.4 NE 6.9 0.0 0.5
15:05 12.1 9.5 84 1011.1 4.5 NW 6.9 0.0 0.5
15:06 12.1 9.5 84 1011.1 4.5 NW 6.9 0.0 0.5
15:07 12.1 9.5 84 1011.1 6.0 NW 6.9 0.0 0.5
15:08 12.1 9.5 84 1011.0 7.6 N 7.6 0.0 0.5
15:09 12.1 9.5 84 1011.1 5.4 NW 7.6 0.0 0.5
15:10 12.2 9.6 84 1011.0 3.8 NW 7.6 0.0 0.5
15:11 12.2 9.6 84 1011.1 4.5 NNE 7.6 0.0 0.5
15:12 12.2 9.6 84 1011.0 4.5 NNE 7.6 0.0 0.5
15:13 12.2 9.6 84 1011.1 4.5 NE 7.6 0.0 0.5
15:14 12.2 9.6 84 1011.0 9.2 NW 9.2 0.0 0.5
15:15 12.2 9.6 84 1011.1 5.4 NE 9.2 0.0 0.5
15:16 12.2 9.6 84 1011.0 2.2 N 9.2 0.0 0.5
15:17 12.3 9.7 84 1011.1 5.4 NW 9.2 0.0 0.5
15:19 12.3 9.7 84 1011.0 5.4 NW 9.2 0.0 0.5
15:20 12.3 9.7 84 1011.0 3.1 NW 9.2 0.0 0.5
15:21 12.3 9.7 84 1010.9 6.9 W 9.2 0.0 0.5
15:22 12.4 9.8 84 1011.0 6.9 N 9.2 0.0 0.5
15:23 12.4 9.8 84 1011.0 6.9 N 9.2 0.0 0.5
15:24 12.4 9.8 84 1011.0 6.0 NW 9.2 0.0 0.5
15:25 12.4 9.8 84 1011.0 7.6 W 7.6 0.0 0.5
15:26 12.4 9.8 84 1010.8 6.9 NW 7.6 0.0 0.5
15:27 12.5 9.7 83 1010.9 6.0 S 7.6 0.0 0.5
15:28 12.5 9.9 84 1010.9 5.4 WNW 7.6 0.0 0.5
15:29 12.6 10.0 84 1010.8 5.4 N 7.6 0.0 0.5
15:30 12.6 10.0 84 1011.0 7.6 NW 7.6 0.0 0.5
15:31 12.7 9.9 83 1011.0 4.5 NW 7.6 0.0 0.5
15:32 12.7 9.9 83 1011.0 6.0 NE 7.6 0.0 0.5
15:33 12.8 10.0 83 1011.0 4.5 WSW 7.6 0.0 0.5
15:34 12.8 10.0 83 1011.0 5.4 NW 7.6 0.0 0.5
15:36 12.9 10.1 83 1011.1 4.5 SW 7.6 0.0 0.5
15:37 13.0 10.2 83 1011.0 4.5 NW 7.6 0.0 0.5
15:38 13.0 10.2 83 1010.9 7.6 N 7.6 0.0 0.5
15:39 13.0 10.2 83 1011.0 9.8 NW 9.8 0.0 0.5
15:40 13.1 10.3 83 1011.0 5.4 WNW 9.8 0.0 0.5
15:41 13.1 10.3 83 1010.9 5.4 N 9.8 0.0 0.5
15:42 13.1 10.3 83 1010.8 6.0 NW 9.8 0.0 0.5
15:43 13.2 10.4 83 1011.0 4.5 NW 9.8 0.0 0.5
15:44 13.2 10.4 83 1011.0 9.8 NW 9.8 0.0 0.5
15:45 13.2 10.4 83 1010.9 9.2 NW 9.8 0.0 0.5
15:46 13.2 10.4 83 1010.9 5.4 NE 9.8 0.0 0.5
15:47 13.3 10.3 82 1010.9 9.2 NW 9.8 0.0 0.5
15:48 13.3 10.3 82 1010.9 9.8 W 9.8 0.0 0.5
15:49 13.3 10.3 82 1010.8 5.4 NE 9.8 0.0 0.5
15:51 13.3 10.3 82 1011.0 7.6 N 9.8 0.0 0.5
15:52 13.3 10.3 82 1010.7 10.7 NW 10.7 0.0 0.5
15:53 13.3 10.3 82 1010.9 7.6 W 10.7 0.0 0.5
15:54 13.3 10.3 82 1010.9 7.6 W 10.7 0.0 0.5
15:55 13.3 10.1 81 1010.8 9.2 NE 10.7 0.0 0.5
15:56 13.4 10.2 81 1010.8 9.2 NW 10.7 0.0 0.5
15:57 13.4 10.2 81 1010.9 6.0 N 10.7 0.0 0.5
15:58 13.4 10.2 81 1010.7 8.3 NW 10.7 0.0 0.5
15:59 13.4 10.2 81 1010.8 5.4 NW 10.7 0.0 0.5
16:00 13.4 10.2 81 1010.8 6.9 W 10.7 0.0 0.5
16:01 13.4 10.2 81 1010.8 6.9 W 10.7 0.0 0.5
16:02 13.5 10.3 81 1010.7 7.6 NE 11.4 0.0 0.5
16:03 13.5 10.3 81 1010.8 8.3 W 11.4 0.0 0.5
16:04 13.5 10.3 81 1010.7 8.3 N 11.4 0.0 0.5
16:06 13.6 10.2 80 1010.8 9.2 N 11.4 0.0 0.5
16:07 13.6 10.2 80 1010.9 6.9 NW 11.4 0.0 0.5
16:08 13.6 10.2 80 1010.6 6.9 SW 11.4 0.0 0.5
16:09 13.6 10.2 80 1010.8 9.8 NW 11.4 0.0 0.5
16:10 13.6 10.2 80 1010.7 9.2 W 11.4 0.0 0.5
16:11 13.6 10.2 80 1010.8 9.2 NW 11.4 0.0 0.5
16:12 13.7 10.3 80 1010.8 6.9 N 11.4 0.0 0.5
16:13 13.7 10.3 80 1010.8 6.9 SW 9.8 0.0 0.5
16:14 13.7 10.3 80 1010.6 6.9 NW 9.8 0.0 0.5
16:15 13.8 10.4 80 1010.6 5.4 SW 9.8 0.0 0.5
16:16 13.8 10.4 80 1010.8 8.3 N 9.8 0.0 0.5
16:17 13.9 10.3 79 1010.8 3.8 W 9.8 0.0 0.5
16:18 13.9 10.3 79 1010.7 7.6 NW 9.8 0.0 0.5
16:19 13.9 10.3 79 1010.8 6.0 NW 9.2 0.0 0.5
16:20 13.9 10.3 79 1010.8 5.4 NE 8.3 0.0 0.5
16:22 14.0 10.4 79 1010.8 10.7 NW 10.7 0.0 0.5
16:23 14.0 10.4 79 1010.6 6.0 W 10.7 0.0 0.5
16:24 14.0 10.4 79 1010.7 8.3 NW 10.7 0.0 0.5
16:25 14.0 10.4 79 1010.8 6.0 SW 10.7 0.0 0.5
16:26 14.0 10.4 79 1010.6 7.6 NW 10.7 0.0 0.5
16:27 14.0 10.2 78 1010.6 7.6 N 10.7 0.0 0.5
16:28 14.1 10.3 78 1010.7 7.6 NW 10.7 0.0 0.5
16:29 14.1 10.3 78 1010.6 5.4 NE 10.7 0.0 0.5
16:30 14.1 10.3 78 1010.7 5.4 N 10.7 0.0 0.5
16:31 14.1 10.3 78 1010.7 4.5 NW 10.7 0.0 0.5
16:32 14.1 10.3 78 1010.8 4.5 NW 10.7 0.0 0.5
16:33 14.1 10.3 78 1010.8 6.0 SW 8.3 0.0 0.5
16:34 14.1 10.3 78 1010.6 6.9 N 7.6 0.0 0.5
16:35 14.1 10.3 78 1010.8 7.6 WNW 7.6 0.0 0.5
16:37 14.1 10.1 77 1010.7 6.0 NW 7.6 0.0 0.5
16:38 14.1 10.1 77 1010.5 8.3 NW 8.3 0.0 0.5
16:39 14.1 10.1 77 1010.5 9.2 NW 9.2 0.0 0.5
16:40 14.1 10.1 77 1010.7 6.9 NW 9.2 0.0 0.5
16:41 14.1 10.1 77 1010.6 7.6 NW 9.2 0.0 0.5
16:42 14.1 10.1 77 1010.5 6.9 NE 9.2 0.0 0.5
16:43 14.0 10.0 77 1010.4 6.0 NW 9.2 0.0 0.5
16:44 14.0 10.0 77 1010.6 2.2 N 9.2 0.0 0.5
16:45 14.1 10.1 77 1010.5 6.9 NW 9.2 0.0 0.5
16:46 14.1 10.1 77 1010.6 7.6 NW 9.2 0.0 0.5
16:47 14.1 10.1 77 1010.6 6.0 W 9.2 0.0 0.5
16:48 14.1 10.1 77 1010.5 9.2 NW 9.2 0.0 0.5
16:49 14.1 10.1 77 1010.5 8.3 NE 9.2 0.0 0.5
16:50 14.1 10.1 77 1010.4 6.0 SW 9.2 0.0 0.5
16:51 14.1 9.9 76 1010.5 6.9 WNW 9.2 0.0 0.5
16:53 14.2 10.0 76 1010.5 3.8 NW 9.2 0.0 0.5
16:54 14.2 10.0 76 1010.5 5.4 NE 9.2 0.0 0.5
16:55 14.2 10.0 76 1010.6 5.4 N 9.2 0.0 0.5
16:56 14.2 10.0 76 1010.6 5.4 N 9.2 0.0 0.5
16:57 14.2 10.0 76 1010.5 4.5 W 9.2 0.0 0.5
16:58 14.2 10.0 76 1010.5 5.4 N 9.2 0.0 0.5
16:59 14.3 10.1 76 1010.4 3.8 N 8.3 0.0 0.5
17:00 14.3 10.1 76 1010.5 8.3 N 8.3 0.0 0.5
17:01 14.3 10.1 76 1010.5 8.3 N 8.3 0.0 0.5
17:02 14.3 10.1 76 1010.5 3.8 W 8.3 0.0 0.5
17:03 14.4 10.2 76 1010.5 3.8 W 8.3 0.0 0.5
17:04 14.4 10.2 76 1010.5 5.4 NW 8.3 0.0 0.5
17:05 14.4 10.2 76 1010.5 6.9 N 8.3 0.0 0.5
17:06 14.4 10.2 76 1010.4 5.4 W 8.3 0.0 0.5
17:07 14.4 10.2 76 1010.4 5.4 NE 8.3 0.0 0.5
17:08 14.4 10.2 76 1010.6 5.4 NW 8.3 0.0 0.5
17:09 14.5 10.3 76 1010.6 6.9 NW 8.3 0.0 0.5
17:10 14.5 10.3 76 1010.5 5.4 NW 8.3 0.0 0.5
17:12 14.5 10.3 76 1010.5 6.9 NW 6.9 0.0 0.5
17:13 14.5 10.1 75 1010.3 7.6 NW 7.6 0.0 0.5
17:14 14.5 10.1 75 1010.4 7.6 N 7.6 0.0 0.5
17:15 14.5 10.1 75 1010.4 7.6 N 7.6 0.0 0.5
17:16 14.5 10.1 75 1010.5 3.8 NW 7.6 0.0 0.5
17:17 14.6 10.2 75 1010.4 6.0 N 7.6 0.0 0.5
17:18 14.6 10.2 75 1010.4 3.8 N 7.6 0.0 0.5
17:19 14.6 10.2 75 1010.5 6.9 N 7.6 0.0 0.5
17:20 14.6 10.2 75 1010.5 6.0 NE 7.6 0.0 0.5
17:21 14.6 10.2 75 1010.5 6.0 NE 7.6 0.0 0.5
17:22 14.6 10.2 75 1010.3 7.6 NE 7.6 0.0 0.5
17:23 14.5 10.1 75 1010.4 3.8 NW 7.6 0.0 0.5
17:24 14.5 10.1 75 1010.3 4.5 NE 7.6 0.0 0.5
17:25 14.6 10.2 75 1010.5 6.0 N 7.6 0.0 0.5
17:27 14.5 9.9 74 1010.3 6.9 N 8.3 0.0 0.5
17:28 14.5 9.9 74 1010.5 7.6 N 8.3 0.0 0.5
17:29 14.5 9.9 74 1010.3 9.2 N 9.2 0.0 0.5
17:30 14.4 9.8 74 1010.5 5.4 N 9.2 0.0 0.5
17:31 14.4 9.8 74 1010.6 3.8 N 9.2 0.0 0.5
17:32 14.4 9.8 74 1010.5 4.5 NNE 9.2 0.0 0.5
17:33 14.4 9.8 74 1010.4 4.5 SW 9.2 0.0 0.5
17:34 14.4 9.8 74 1010.5 8.3 NE 9.2 0.0 0.5
17:35 14.4 9.8 74 1010.5 5.4 W 9.2 0.0 0.5
17:36 14.4 9.8 74 1010.5 5.4 NE 9.2 0.0 0.5
17:37 14.4 9.8 74 1010.4 3.8 NW 9.2 0.0 0.5
17:38 14.3 9.7 74 1010.3 3.8 N 9.2 0.0 0.5
17:39 14.3 9.7 74 1010.4 7.6 N 8.3 0.0 0.5
17:40 14.3 9.7 74 1010.3 4.5 E 8.3 0.0 0.5
17:41 14.3 9.7 74 1010.3 3.8 N 8.3 0.0 0.5
17:43 14.3 9.7 74 1010.4 5.4 N 8.3 0.0 0.5
17:44 14.3 9.7 74 1010.2 3.1 N 7.6 0.0 0.5
17:45 14.3 9.7 74 1010.3 3.8 W 7.6 0.0 0.5
17:46 14.3 9.7 74 1010.3 3.1 W 7.6 0.0 0.5
17:47 14.3 9.7 74 1010.3 5.4 N 7.6 0.0 0.5
17:48 14.3 9.7 74 1010.4 4.5 N 7.6 0.0 0.5
17:49 14.3 9.7 74 1010.3 3.8 WNW 7.6 0.0 0.5
17:50 14.3 9.7 74 1010.2 6.9 NW 6.9 0.0 0.5
17:51 14.3 9.7 74 1010.2 4.5 NW 6.9 0.0 0.5
17:52 14.3 9.7 74 1010.2 3.1 NW 6.9 0.0 0.5
17:53 14.3 9.7 74 1010.3 5.4 N 6.9 0.0 0.5
17:54 14.3 9.7 74 1010.4 6.0 N 6.9 0.0 0.5
17:55 14.3 9.7 74 1010.1 6.9 SW 6.9 0.0 0.5
17:56 14.3 9.7 74 1010.3 5.4 WSW 6.9 0.0 0.5
17:57 14.3 9.7 74 1010.3 7.6 NW 7.6 0.0 0.5
17:59 14.3 9.7 74 1010.2 7.6 SW 7.6 0.0 0.5
18:00 14.3 9.7 74 1010.1 7.6 SW 7.6 0.0 0.5
18:01 14.3 9.7 74 1010.2 7.6 SW 7.6 0.0 0.5
18:02 14.3 9.7 74 1010.3 6.0 W 7.6 0.0 0.5
18:03 14.3 9.7 74 1010.2 4.5 W 7.6 0.0 0.5
18:04 14.3 9.7 74 1010.2 6.0 WNW 7.6 0.0 0.5
18:05 14.3 9.7 74 1010.3 5.4 N 7.6 0.0 0.5
18:06 14.4 9.8 74 1010.3 3.1 NE 7.6 0.0 0.5
18:07 14.4 9.8 74 1010.3 4.5 NW 7.6 0.0 0.5
18:08 14.4 9.8 74 1010.3 3.8 N 7.6 0.0 0.5
18:09 14.4 9.8 74 1010.2 6.0 NW 7.6 0.0 0.5
18:10 14.4 9.8 74 1010.2 6.0 NW 7.6 0.0 0.5
18:11 14.4 9.6 73 1010.2 3.1 NE 7.6 0.0 0.5
18:12 14.4 9.6 73 1010.2 3.8 NW 6.0 0.0 0.5
18:13 14.4 9.6 73 1010.1 4.5 NW 6.0 0.0 0.5
18:14 14.4 9.6 73 1010.3 5.4 NW 6.0 0.0 0.5
18:16 14.3 9.5 73 1010.1 4.5 N 6.0 0.0 0.5
18:17 14.3 9.5 73 1010.3 6.9 NE 6.9 0.0 0.5
18:18 14.3 9.5 73 1010.1 3.8 NE 6.9 0.0 0.5
18:19 14.3 9.5 73 1010.2 5.4 NE 6.9 0.0 0.5
18:20 14.3 9.5 73 1010.3 6.0 NE 6.9 0.0 0.5
18:21 14.3 9.5 73 1010.2 7.6 W 7.6 0.0 0.5
18:22 14.2 9.4 73 1010.3 3.8 W 7.6 0.0 0.5
18:23 14.2 9.4 73 1010.3 4.5 NW 7.6 0.0 0.5
18:24 14.2 9.4 73 1010.2 3.8 W 7.6 0.0 0.5
18:25 14.2 9.4 73 1010.2 3.8 W 7.6 0.0 0.5
18:26 14.2 9.4 73 1010.1 5.4 S 7.6 0.0 0.5
18:27 14.2 9.4 73 1010.2 3.8 N 7.6 0.0 0.5
18:28 14.1 9.3 73 1010.1 3.8 NW 7.6 0.0 0.5
18:29 14.1 9.3 73 1010.1 7.6 NW 7.6 0.0 0.5
18:31 14.1 9.3 73 1010.1 7.6 SW 7.6 0.0 0.5
18:32 14.1 9.3 73 1010.0 3.8 NW 7.6 0.0 0.5
18:33 14.1 9.3 73 1010.0 4.5 NW 7.6 0.0 0.5
18:34 14.1 9.3 73 1010.0 4.5 NW 7.6 0.0 0.5
18:35 14.1 9.3 73 1009.9 5.4 SW 7.6 0.0 0.5
18:36 14.1 9.3 73 1010.0 4.5 NW 7.6 0.0 0.5
18:37 14.1 9.3 73 1010.0 5.4 NW 7.6 0.0 0.5
18:38 14.1 9.3 73 1010.0 4.5 N 7.6 0.0 0.5
18:39 14.2 9.4 73 1010.1 6.0 NW 7.6 0.0 0.5
18:40 14.2 9.4 73 1009.9 4.5 W 7.6 0.0 0.5
18:41 14.2 9.4 73 1009.9 4.5 W 7.6 0.0 0.5
18:42 14.3 9.5 73 1009.9 5.4 NE 6.0 0.0 0.5
18:43 14.3 9.5 73 1010.0 5.4 NW 6.0 0.0 0.5
18:44 14.3 9.5 73 1010.0 3.8 W 6.0 0.0 0.5
18:45 14.4 9.6 73 1010.0 4.5 W 6.0 0.0 0.5
18:46 14.4 9.6 73 1009.9 3.1 N 6.0 0.0 0.5
18:48 14.5 9.7 73 1010.0 5.4 NW 6.0 0.0 0.5
18:49 14.5 9.7 73 1010.0 2.2 W 6.0 0.0 0.5
18:50 14.5 9.7 73 1010.0 3.8 NW 5.4 0.0 0.5
18:51 14.5 9.7 73 1010.0 3.8 NW 5.4 0.0 0.5
18:52 14.6 9.8 73 1010.0 6.9 NW 6.9 0.0 0.5
18:53 14.6 9.8 73 1010.1 7.6 WNW 7.6 0.0 0.5
18:54 14.6 9.6 72 1010.0 5.4 WNW 7.6 0.0 0.5
18:55 14.6 9.6 72 1010.1 4.5 N 7.6 0.0 0.5
18:56 14.6 9.6 72 1009.9 6.0 NW 7.6 0.0 0.5
18:57 14.6 9.6 72 1010.0 3.8 NW 7.6 0.0 0.5
18:58 14.5 9.5 72 1010.0 3.8 N 7.6 0.0 0.5
18:59 14.5 9.5 72 1010.0 6.0 NW 7.6 0.0 0.5
19:00 14.5 9.3 71 1010.0 7.6 W 7.6 0.0 0.5
19:01 14.5 9.3 71 1010.1 7.6 W 7.6 0.0 0.5
19:02 14.5 9.3 71 1010.2 6.0 W 7.6 0.0 0.5
19:03 14.5 9.3 71 1010.0 6.0 N 7.6 0.0 0.5
19:05 14.4 9.2 71 1010.0 5.4 NW 7.6 0.0 0.5
19:06 14.3 9.1 71 1010.0 6.9 W 7.6 0.0 0.5
19:07 14.3 9.1 71 1010.0 3.1 NW 7.6 0.0 0.5
19:08 14.3 9.1 71 1010.0 2.2 W 7.6 0.0 0.5
19:09 14.3 9.1 71 1010.0 5.4 WSW 7.6 0.0 0.5
19:10 14.3 9.1 71 1010.0 4.5 W 7.6 0.0 0.5
19:11 14.2 9.0 71 1010.0 3.8 NW 7.6 0.0 0.5
19:12 14.2 9.0 71 1010.0 6.0 N 6.9 0.0 0.5
19:13 14.2 9.0 71 1009.9 6.0 N 6.9 0.0 0.5
19:14 14.2 9.0 71 1010.0 6.9 NW 6.9 0.0 0.5
19:15 14.1 8.9 71 1009.9 4.5 N 6.9 0.0 0.5
19:16 14.1 8.9 71 1009.9 6.0 NW 6.9 0.0 0.5
19:17 14.1 8.9 71 1009.9 6.9 NW 6.9 0.0 0.5
19:18 14.0 8.8 71 1009.9 7.6 NW 7.6 0.0 0.5
19:19 14.0 8.8 71 1010.0 6.9 NE 7.6 0.0 0.5
19:20 13.9 8.7 71 1009.9 5.4 NW 7.6 0.0 0.5
19:21 13.9 8.7 71 1010.0 4.5 NW 7.6 0.0 0.5
19:22 13.9 8.7 71 1009.8 4.5 NW 7.6 0.0 0.5
19:23 13.8 8.6 71 1009.8 5.4 N 7.6 0.0 0.5
19:24 13.8 8.6 71 1009.9 4.5 N 7.6 0.0 0.5
19:25 13.8 8.6 71 1009.9 7.6 NW 7.6 0.0 0.5
19:27 13.7 8.5 71 1010.0 4.5 N 7.6 0.0 0.5
19:28 13.7 8.5 71 1009.9 5.4 N 7.6 0.0 0.5
19:29 13.6 8.4 71 1010.0 4.5 N 7.6 0.0 0.5
19:30 13.6 8.4 71 1010.0 4.5 N 7.6 0.0 0.5
19:31 13.6 8.4 71 1009.9 6.9 NW 7.6 0.0 0.5
19:32 13.5 8.3 71 1010.0 4.5 W 7.6 0.0 0.5
19:33 13.5 8.3 71 1010.0 3.1 NW 7.6 0.0 0.5
19:34 13.5 8.6 72 1009.9 3.1 NW 7.6 0.0 0.5
19:35 13.5 8.6 72 1009.9 3.1 W 6.9 0.0 0.5
19:36 13.5 8.6 72 1009.9 3.1 NW 6.9 0.0 0.5
19:37 13.5 8.6 72 1009.9 3.8 W 6.9 0.0 0.5
19:38 13.5 8.6 72 1009.9 6.0 N 6.9 0.0 0.5
19:39 13.5 8.6 72 1009.9 6.0 WNW 6.9 0.0 0.5
19:40 13.5 8.6 72 1009.9 4.5 NW 6.9 0.0 0.5
19:41 13.5 8.6 72 1009.9 5.4 W 6.0 0.0 0.5
19:42 13.4 8.5 72 1009.9 3.8 NW 6.0 0.0 0.5
19:43 13.4 8.5 72 1009.8 6.9 WNW 6.9 0.0 0.5
19:45 13.4 8.5 72 1009.9 4.5 NW 6.9 0.0 0.5
19:46 13.4 8.5 72 1009.9 4.5 WNW 6.9 0.0 0.5
19:47 13.4 8.5 72 1009.8 4.5 NW 6.9 0.0 0.5
19:48 13.4 8.5 72 1009.8 3.8 SW 6.9 0.0 0.5
19:49 13.4 8.5 72 1009.9 4.5 SW 6.9 0.0 0.5
19:50 13.4 8.5 72 1009.9 5.4 W 6.9 0.0 0.5
19:51 13.4 8.5 72 1009.9 5.4 NW 6.9 0.0 0.5
19:52 13.4 8.5 72 1009.9 6.9 W 6.9 0.0 0.5
19:53 13.4 8.5 72 1009.9 5.4 NW 6.9 0.0 0.5
19:54 13.4 8.5 72 1010.0 4.5 N 6.9 0.0 0.5
19:55 13.4 8.5 72 1009.8 4.5 NW 6.9 0.0 0.5
19:56 13.3 8.4 72 1009.9 4.5 N 6.9 0.0 0.5
19:57 13.3 8.4 72 1009.9 3.8 N 6.9 0.0 0.5
19:58 13.3 8.4 72 1009.9 3.8 WSW 6.9 0.0 0.5
19:59 13.3 8.4 72 1009.7 3.8 NW 6.9 0.0 0.5
20:00 13.3 8.4 72 1009.8 2.2 W 6.9 0.0 0.5
20:02 13.3 8.4 72 1009.7 3.8 NW 6.9 0.0 0.5
20:03 13.3 8.4 72 1009.9 3.1 S 5.4 0.0 0.5
20:04 13.3 8.4 72 1009.9 3.8 NW 5.4 0.0 0.5
20:05 13.3 8.4 72 1009.9 2.2 W 5.4 0.0 0.5
20:06 13.3 8.4 72 1009.9 3.1 NE 5.4 0.0 0.5
20:07 13.3 8.4 72 1010.0 3.1 NE 5.4 0.0 0.5
20:08 13.3 8.4 72 1010.0 3.8 NW 6.0 0.0 0.5
20:09 13.3 8.4 72 1009.9 4.5 N 6.0 0.0 0.5
20:10 13.3 8.4 72 1009.8 3.8 NE 6.0 0.0 0.5
20:11 13.3 8.4 72 1010.0 4.5 NW 6.0 0.0 0.5
20:12 13.3 8.4 72 1009.9 5.4 N 6.0 0.0 0.5
20:13 13.2 8.3 72 1009.7 6.0 N 6.0 0.0 0.5
20:14 13.2 8.3 72 1009.9 4.5 NW 6.9 0.0 0.5
20:15 13.2 8.3 72 1009.9 5.4 WNW 6.9 0.0 0.5
20:16 13.1 8.2 72 1009.7 6.0 NW 6.9 0.0 0.5
20:17 13.1 8.2 72 1010.0 6.0 NW 6.9 0.0 0.5
20:19 13.0 8.1 72 1009.9 1.6 W 6.9 0.0 0.5
20:20 13.0 8.1 72 1009.9 3.8 WNW 6.9 0.0 0.5
20:21 13.0 8.1 72 1009.9 0.7 N 6.9 0.0 0.5
20:22 12.9 8.0 72 1009.7 1.6 W 6.9 0.0 0.5
20:23 12.9 8.0 72 1009.8 5.4 NW 6.9 0.0 0.5
20:24 12.8 7.9 72 1009.7 3.1 N 6.0 0.0 0.5
20:25 12.8 7.9 72 1009.9 5.4 SW 6.0 0.0 0.5
20:26 12.8 7.9 72 1009.8 4.5 NW 6.0 0.0 0.5
20:27 12.8 7.9 72 1009.6 4.5 NW 5.4 0.0 0.5
20:28 12.7 7.8 72 1009.8 3.1 W 5.4 0.0 0.5
20:29 12.7 7.8 72 1009.9 3.1 N 5.4 0.0 0.5
20:30 12.6 7.7 72 1009.8 2.2 NW 5.4 0.0 0.5
20:31 12.6 7.7 72 1009.8 3.8 NW 5.4 0.0 0.5
20:32 12.6 7.7 72 1009.9 3.1 N 5.4 0.0 0.5
20:33 12.5 7.6 72 1009.9 2.2 N 5.4 0.0 0.5
20:34 12.5 7.8 73 1010.0 6.0 W 6.0 0.0 0.5
20:36 12.4 7.5 72 1010.0 3.1 SW 6.0 0.0 0.5
20:37 12.4 7.7 73 1009.9 3.8 W 6.0 0.0 0.5
20:38 12.4 7.7 73 1010.0 3.8 SSW 6.0 0.0 0.5
20:39 12.3 7.6 73 1009.9 1.6 N 6.0 0.0 0.5
20:40 12.3 7.6 73 1009.8 2.2 E 6.0 0.0 0.5
20:41 12.3 7.6 73 1009.9 2.2 E 6.0 0.0 0.5
20:42 12.3 7.6 73 1010.0 2.2 E 6.0 0.0 0.5
20:43 12.2 7.5 73 1010.0 2.2 NW 6.0 0.0 0.5
20:44 12.2 7.5 73 1010.0 6.0 WNW 6.0 0.0 0.5
20:45 12.2 7.5 73 1010.0 6.0 WNW 6.0 0.0 0.5
20:46 12.2 7.5 73 1010.1 3.1 NW 6.0 0.0 0.5
20:47 12.1 7.4 73 1010.1 4.5 N 6.0 0.0 0.5
20:48 12.1 7.4 73 1010.0 4.5 N 6.0 0.0 0.5
20:49 12.1 7.4 73 1009.9 3.8 NW 6.0 0.0 0.5
20:50 12.1 7.4 73 1009.9 4.5 N 6.0 0.0 0.5
20:52 12.0 7.3 73 1010.0 4.5 NE 6.0 0.0 0.5
20:53 12.0 7.3 73 1010.0 4.5 NE 6.0 0.0 0.5
20:54 12.0 7.3 73 1009.9 4.5 NE 6.0 0.0 0.5
20:55 11.9 7.4 74 1010.0 4.5 NW 5.4 0.0 0.5
20:56 11.9 7.4 74 1010.0 3.1 N 4.5 0.0 0.5
20:57 11.8 7.3 74 1010.0 2.2 NW 4.5 0.0 0.5
20:58 11.8 7.3 74 1010.0 3.1 W 4.5 0.0 0.5
20:59 11.8 7.3 74 1010.1 3.8 N 4.5 0.0 0.5
21:00 11.8 7.3 74 1010.1 3.8 N 4.5 0.0 0.5
21:01 11.8 7.3 74 1010.1 3.8 N 4.5 0.0 0.5
21:02 11.8 7.3 74 1010.1 3.8 N 4.5 0.0 0.5
21:03 11.8 7.3 74 1010.1 3.8 N 4.5 0.0 0.5
21:04 11.8 7.3 74 1010.1 3.8 N 4.5 0.0 0.5
21:05 11.8 7.3 74 1010.1 3.8 N 4.5 0.0 0.5
21:06 11.6 7.1 74 1010.0 3.1 N 4.5 0.0 0.5
21:07 11.6 7.1 74 1010.0 3.1 NW 3.8 0.0 0.5
21:08 11.6 7.1 74 1010.2 3.1 N 3.8 0.0 0.5
21:09 11.5 7.0 74 1010.0 3.8 N 3.8 0.0 0.5
21:10 11.5 7.2 75 1010.0 3.1 NW 3.8 0.0 0.5
21:11 11.5 7.2 75 1010.0 3.1 N 3.8 0.0 0.5
21:13 11.5 7.2 75 1010.0 3.8 N 3.8 0.0 0.5
21:14 11.4 7.1 75 1010.1 2.2 N 3.8 0.0 0.5
21:15 11.4 7.1 75 1010.0 3.1 WNW 3.8 0.0 0.5
21:16 11.4 7.1 75 1010.0 3.1 NW 3.8 0.0 0.5
21:17 11.4 7.1 75 1010.1 1.6 NW 3.8 0.0 0.5
21:18 11.3 7.0 75 1010.0 4.5 NW 4.5 0.0 0.5
21:19 11.3 7.0 75 1010.2 3.1 NW 4.5 0.0 0.5
21:20 11.3 7.0 75 1010.1 2.2 NW 4.5 0.0 0.5
21:21 11.3 7.0 75 1010.1 3.8 NW 4.5 0.0 0.5
21:22 11.3 7.0 75 1010.1 3.8 NW 4.5 0.0 0.5
21:23 11.3 7.2 76 1010.2 3.8 NW 4.5 0.0 0.5
21:24 11.3 7.2 76 1010.1 2.2 N 4.5 0.0 0.5
21:25 11.2 7.1 76 1010.1 3.1 NW 4.5 0.0 0.5
21:26 11.2 7.1 76 1010.0 1.6 N 4.5 0.0 0.5
21:27 11.2 7.1 76 1010.1 0.7 W 4.5 0.0 0.5
21:29 11.2 7.1 76 1010.2 1.6 NW 3.8 0.0 0.5
21:30 11.2 7.1 76 1010.2 3.1 S 3.8 0.0 0.5
21:31 11.2 7.1 76 1010.1 3.1 NE 3.8 0.0 0.5
21:32 11.2 7.1 76 1010.2 1.6 W 3.8 0.0 0.5
21:33 11.2 7.1 76 1010.2 1.6 N 3.1 0.0 0.5
21:34 11.2 7.1 76 1010.2 0.7 NW 3.1 0.0 0.5
21:35 11.2 7.3 77 1010.2 1.6 W 3.1 0.0 0.5
21:36 11.2 7.1 76 1010.2 2.2 NW 3.1 0.0 0.5
21:37 11.2 7.1 76 1010.2 2.2 NW 3.1 0.0 0.5
21:38 11.1 7.2 77 1010.1 3.1 W 3.1 0.0 0.5
21:39 11.1 7.2 77 1010.2 3.1 WNW 3.1 0.0 0.5
21:40 11.1 7.2 77 1010.3 2.2 W 3.1 0.0 0.5
21:41 11.1 7.2 77 1010.2 3.1 W 3.1 0.0 0.5
21:42 11.1 7.2 77 1010.2 0.0 NW 3.1 0.0 0.5
21:43 11.1 7.2 77 1010.2 0.0 W 3.1 0.0 0.5
21:44 11.1 7.2 77 1010.0 0.0 NW 3.1 0.0 0.5
21:45 11.1 7.2 77 1010.2 0.0 NW 3.1 0.0 0.5
21:46 11.0 7.1 77 1010.3 1.6 W 3.1 0.0 0.5
21:47 11.0 7.1 77 1010.2 1.6 NW 3.1 0.0 0.5
21:48 11.0 7.1 77 1010.1 0.0 N 3.1 0.0 0.5
21:49 11.0 7.1 77 1010.1 0.0 N 3.1 0.0 0.5
21:50 11.0 7.1 77 1010.2 2.2 NW 3.1 0.0 0.5
21:51 11.0 7.1 77 1010.3 0.7 N 3.1 0.0 0.5
21:52 11.0 7.3 78 1010.3 1.6 NW 2.2 0.0 0.5
21:53 11.0 7.3 78 1010.4 0.7 NW 2.2 0.0 0.5
21:54 11.0 7.3 78 1010.2 0.0 NW 2.2 0.0 0.5
21:55 11.0 7.3 78 1010.2 0.7 NW 2.2 0.0 0.5
21:56 11.0 7.3 78 1010.3 0.7 NW 2.2 0.0 0.5
21:57 11.0 7.3 78 1010.2 0.0 NW 2.2 0.0 0.5
21:58 11.0 7.3 78 1010.1 0.7 W 2.2 0.0 0.5
21:59 11.0 7.3 78 1010.2 0.0 N 2.2 0.0 0.5
22:00 11.0 7.3 78 1010.3 2.2 NW 2.2 0.0 0.5
22:01 11.0 7.3 78 1010.1 2.2 NW 2.2 0.0 0.5
22:02 11.0 7.3 78 1010.1 2.2 NW 2.2 0.0 0.5
22:03 11.0 7.3 78 1010.3 2.2 NW 2.2 0.0 0.5
22:04 11.0 7.3 78 1010.2 2.2 NW 2.2 0.0 0.5
22:05 11.0 7.3 78 1010.2 2.2 NW 2.2 0.0 0.5
22:06 11.1 7.6 79 1010.2 1.6 N 2.2 0.0 0.5
22:07 11.1 7.6 79 1010.2 0.7 NW 2.2 0.0 0.5
22:08 11.1 7.6 79 1010.3 3.1 NW 3.1 0.0 0.5
22:09 11.1 7.6 79 1010.2 3.1 NW 3.1 0.0 0.5
22:10 11.1 7.6 79 1010.1 0.7 W 3.1 0.0 0.5
22:11 11.1 7.6 79 1010.1 0.0 NW 3.1 0.0 0.5
22:12 11.2 7.7 79 1010.2 0.0 N 3.1 0.0 0.5
22:13 11.2 7.7 79 1010.2 0.0 NW 3.1 0.0 0.5
22:14 11.2 7.7 79 1010.2 3.8 NW 5.4 0.0 0.5
22:15 11.2 7.7 79 1010.0 1.6 NNE 5.4 0.0 0.5
22:16 11.2 7.7 79 1010.0 1.6 N 5.4 0.0 0.5
22:17 11.2 7.7 79 1010.1 2.2 N 5.4 0.0 0.5
22:18 11.2 7.9 80 1010.1 4.5 NW 5.4 0.0 0.5
22:19 11.2 7.7 79 1010.0 1.6 NW 5.4 0.0 0.5
22:20 11.3 8.0 80 1010.0 0.0 NW 5.4 0.0 0.5
22:21 11.3 8.0 80 1010.1 0.0 NW 5.4 0.0 0.5
22:22 11.3 8.0 80 1010.0 0.0 N 5.4 0.0 0.5
22:23 11.3 8.0 80 1010.1 0.0 N 5.4 0.0 0.5
22:24 11.3 8.0 80 1010.0 0.0 N 4.5 0.0 0.5
22:25 11.3 8.0 80 1010.0 0.0 N 4.5 0.0 0.5
22:26 11.3 8.0 80 1009.8 0.0 W 4.5 0.0 0.5
22:27 11.3 8.0 80 1010.0 0.0 NW 4.5 0.0 0.5
22:28 11.3 8.0 80 1010.0 0.0 NW 4.5 0.0 0.5
22:29 11.3 8.0 80 1009.9 0.0 NW 2.2 0.0 0.5
22:30 11.3 8.0 80 1010.0 0.0 N 0.0 0.0 0.5
22:31 11.4 8.1 80 1010.0 0.0 N 0.0 0.0 0.5
22:32 11.3 8.0 80 1010.0 0.0 N 0.0 0.0 0.5
22:33 11.4 8.1 80 1009.9 0.0 N 0.0 0.0 0.5
22:34 11.3 8.0 80 1009.9 0.0 N 0.0 0.0 0.5
22:35 11.4 8.1 80 1009.9 0.0 N 0.0 0.0 0.5
22:36 11.3 8.0 80 1010.0 0.0 N 0.0 0.0 0.5
22:37 11.4 8.1 80 1010.0 0.0 NW 0.0 0.0 0.5
22:38 11.4 8.1 80 1010.0 0.0 NW 0.0 0.0 0.5
22:39 11.4 8.1 80 1010.0 0.0 N 0.0 0.0 0.5
22:40 11.4 8.1 80 1010.0 0.0 N 0.0 0.0 0.5
22:41 11.4 8.1 80 1010.0 0.0 NW 0.0 0.0 0.5
22:42 11.4 8.1 80 1010.0 0.0 N 0.0 0.0 0.5
22:43 11.4 8.1 80 1010.0 0.0 W 0.0 0.0 0.5
22:44 11.4 8.3 81 1010.0 0.0 NW 0.0 0.0 0.5
22:45 11.4 8.1 80 1009.9 0.0 NW 0.0 0.0 0.5
22:46 11.4 8.3 81 1010.0 2.2 N 2.2 0.0 0.5
22:47 11.4 8.3 81 1009.8 0.0 N 2.2 0.0 0.5
22:48 11.4 8.3 81 1010.0 0.0 NW 2.2 0.0 0.5
22:49 11.4 8.3 81 1009.9 0.0 N 2.2 0.0 0.5
22:50 11.4 8.3 81 1009.9 0.0 N 2.2 0.0 0.5
22:51 11.4 8.3 81 1009.8 0.0 N 2.2 0.0 0.5
22:52 11.4 8.3 81 1009.9 0.0 N 2.2 0.0 0.5
22:53 11.4 8.3 81 1010.0 0.0 N 2.2 0.0 0.5
22:54 11.4 8.3 81 1009.9 0.0 N 2.2 0.0 0.5
22:55 11.4 8.3 81 1009.8 0.0 NW 2.2 0.0 0.5
22:56 11.5 8.4 81 1009.9 0.0 NE 0.0 0.0 0.5
22:57 11.5 8.4 81 1010.0 0.0 NW 0.0 0.0 0.5
22:58 11.5 8.4 81 1009.9 0.0 NW 0.0 0.0 0.5
22:59 11.5 8.4 81 1009.9 0.0 NE 0.0 0.0 0.5
23:00 11.5 8.4 81 1009.8 0.0 NE 0.0 0.0 0.5
23:01 11.5 8.4 81 1009.9 0.0 NE 0.0 0.0 0.5
23:02 11.5 8.4 81 1009.9 0.0 NE 0.0 0.0 0.5
23:03 11.5 8.4 81 1010.0 0.0 NE 0.0 0.0 0.5
23:04 11.5 8.4 81 1010.0 0.0 NE 0.0 0.0 0.5
23:05 11.5 8.4 81 1010.0 0.0 NE 0.0 0.0 0.5
23:06 11.5 8.4 81 1009.8 0.0 NE 0.0 0.0 0.5
23:07 11.5 8.4 81 1009.8 0.0 NE 0.0 0.0 0.5
23:08 11.5 8.4 81 1009.8 0.0 N 0.0 0.0 0.5
23:09 11.5 8.4 81 1009.9 0.0 N 0.0 0.0 0.5
23:10 11.5 8.4 81 1009.9 0.0 N 0.0 0.0 0.5
23:11 11.5 8.4 81 1009.9 0.0 N 0.0 0.0 0.5
23:12 11.5 8.4 81 1009.9 4.5 NW 4.5 0.0 0.5
23:13 11.5 8.4 81 1009.9 1.6 WNW 4.5 0.0 0.5
23:14 11.5 8.4 81 1009.9 2.2 NW 4.5 0.0 0.5
23:15 11.5 8.4 81 1009.9 0.0 N 4.5 0.0 0.5
23:16 11.5 8.4 81 1009.7 2.2 N 4.5 0.0 0.5
23:17 11.5 8.4 81 1009.8 0.0 W 4.5 0.0 0.5
23:18 11.5 8.4 81 1009.8 0.0 NW 4.5 0.0 0.5
23:19 11.5 8.4 81 1009.8 1.6 NW 4.5 0.0 0.5
23:20 11.5 8.4 81 1010.0 0.7 N 4.5 0.0 0.5
23:21 11.5 8.4 81 1009.8 4.5 NW 4.5 0.0 0.5
23:22 11.5 8.4 81 1009.7 5.4 W 5.4 0.0 0.5
23:23 11.5 8.4 81 1009.7 4.5 NW 5.4 0.0 0.5
23:24 11.5 8.5 82 1009.7 3.8 NW 5.4 0.0 0.5
23:25 11.5 8.4 81 1009.6 3.1 NW 5.4 0.0 0.5
23:26 11.5 8.5 82 1009.7 1.6 NW 5.4 0.0 0.5
23:27 11.5 8.5 82 1009.8 0.0 W 5.4 0.0 0.5
23:28 11.5 8.5 82 1009.8 0.0 W 5.4 0.0 0.5
23:29 11.5 8.5 82 1009.7 0.0 W 5.4 0.0 0.5
23:30 11.5 8.5 82 1009.7 0.0 W 5.4 0.0 0.5
23:31 11.5 8.5 82 1009.6 0.0 W 5.4 0.0 0.5
23:32 11.5 8.5 82 1009.5 0.0 N 5.4 0.0 0.5
23:33 11.5 8.5 82 1009.6 0.0 N 4.5 0.0 0.5
23:34 11.5 8.5 82 1009.7 0.0 NW 3.8 0.0 0.5
23:35 11.5 8.5 82 1009.6 0.0 NW 3.1 0.0 0.5
23:36 11.5 8.5 82 1009.7 0.0 W 1.6 0.0 0.5
23:37 11.5 8.5 82 1009.6 0.0 W 0.0 0.0 0.5
23:38 11.5 8.5 82 1009.6 0.0 SW 0.0 0.0 0.5
23:39 11.5 8.5 82 1009.5 0.0 NW 0.0 0.0 0.5
23:40 11.5 8.5 82 1009.5 0.0 NW 0.0 0.0 0.5
23:41 11.5 8.5 82 1009.4 0.0 W 0.0 0.0 0.5
23:42 11.5 8.5 82 1009.5 0.0 W 0.0 0.0 0.5
23:43 11.5 8.5 82 1009.5 0.0 W 0.0 0.0 0.5
23:44 11.5 8.5 82 1009.5 0.0 W 0.0 0.0 0.5
23:45 11.5 8.5 82 1009.6 0.0 W 0.0 0.0 0.5
23:46 11.5 8.5 82 1009.4 0.0 NW 0.0 0.0 0.5
23:47 11.4 8.4 82 1009.4 0.0 NW 0.0 0.0 0.5
23:48 11.4 8.4 82 1009.5 0.0 NW 0.0 0.0 0.5
23:49 11.5 8.5 82 1009.5 0.0 NW 0.0 0.0 0.5
23:50 11.4 8.4 82 1009.5 0.0 NW 0.0 0.0 0.5
23:51 11.4 8.4 82 1009.5 0.0 NW 0.0 0.0 0.5
23:52 11.4 8.4 82 1009.4 0.0 NW 0.0 0.0 0.5
23:53 11.4 8.4 82 1009.4 0.0 W 0.0 0.0 0.5
23:54 11.4 8.4 82 1009.4 0.0 W 0.0 0.0 0.5
23:55 11.4 8.4 82 1009.4 0.0 NW 0.0 0.0 0.5
23:56 11.4 8.4 82 1009.4 0.0 NW 0.0 0.0 0.5
23:57 11.4 8.4 82 1009.5 0.0 NW 0.0 0.0 0.5
23:58 11.4 8.4 82 1009.6 0.0 NW 0.0 0.0 0.5
23:59 11.3 8.3 82 1009.6 0.0 NW 0.0 0.0 0.5

UK - WEATHER STATION TOPSITES - UK World Weather Websites

This is a private weather station, never base important decisions or events on data from this weather station. Although every effort has been made to make the data as accurate as possible it does not meet MetOffice standards. It is proved as a guide of local weather conditions. We accept no liability for any loss which may arise from use of the data.

Copyright © Carnkie Weather 2009 - 2019.